<- Previous Day | Today | Next Day ->

All Data for 16 June 2024

 

Time A - D Temp A - D Dew Point A - D Humidity A - D Pressure A - D Wind A - D Wind Dir Gust A - D Rain Rate A - D Rain Total
00:00 10.6 8.7 88 1003.6 7.6 SW 8.3 0.0 0.0
00:01 10.6 8.7 88 1003.6 6.0 SW 8.3 0.0 0.0
00:02 10.6 8.7 88 1003.7 6.9 SW 8.3 0.0 0.0
00:03 10.6 8.7 88 1003.7 6.9 W 8.3 0.0 0.0
00:04 10.6 8.7 88 1003.7 6.0 WSW 8.3 0.0 0.0
00:05 10.6 8.7 88 1003.8 6.9 SW 8.3 0.0 0.0
00:06 10.6 8.9 89 1003.7 5.4 SW 8.3 0.0 0.0
00:07 10.6 8.9 89 1003.6 5.4 SW 8.3 0.0 0.0
00:09 10.5 8.8 89 1003.6 5.4 SW 7.6 0.0 0.0
00:10 10.5 8.8 89 1003.7 6.9 SW 6.9 0.0 0.0
00:11 10.5 8.8 89 1003.7 5.4 SW 6.9 0.0 0.0
00:12 10.5 8.8 89 1003.6 5.4 SW 6.9 0.0 0.0
00:13 10.4 8.7 89 1003.7 6.0 SSW 6.9 0.0 0.0
00:14 10.4 8.7 89 1003.5 6.0 SW 6.9 0.0 0.0
00:15 10.4 8.7 89 1003.6 6.0 W 6.9 0.0 0.0
00:16 10.4 8.7 89 1003.6 6.9 S 6.9 0.0 0.0
00:17 10.4 8.7 89 1003.6 5.4 SW 6.9 0.0 0.0
00:18 10.4 8.7 89 1003.7 6.9 SW 6.9 0.0 0.0
00:19 10.4 8.7 89 1003.7 6.9 W 6.9 0.0 0.0
00:20 10.3 8.6 89 1003.5 5.4 SW 6.9 0.0 0.0
00:21 10.3 8.6 89 1003.6 5.4 SW 6.9 0.0 0.0
00:22 10.3 8.6 89 1003.5 5.4 SW 6.9 0.0 0.0
00:23 10.3 8.6 89 1003.4 5.4 SW 6.9 0.0 0.0
00:24 10.3 8.6 89 1003.5 5.4 W 6.9 0.0 0.0
00:26 10.3 8.6 89 1003.5 6.0 SSW 8.3 0.0 0.0
00:27 10.3 8.6 89 1003.5 5.4 SW 8.3 0.0 0.0
00:28 10.3 8.6 89 1003.4 4.5 SW 8.3 0.0 0.0
00:29 10.3 8.6 89 1003.6 6.0 S 8.3 0.0 0.0
00:30 10.2 8.5 89 1003.6 7.6 S 8.3 0.0 0.0
00:31 10.2 8.5 89 1003.4 5.4 SW 8.3 0.0 0.0
00:32 10.2 8.5 89 1003.5 6.0 S 8.3 0.0 0.0
00:33 10.2 8.5 89 1003.4 4.5 SW 8.3 0.0 0.0
00:34 10.2 8.5 89 1003.5 4.5 SSW 8.3 0.0 0.0
00:35 10.2 8.5 89 1003.4 5.4 SW 8.3 0.0 0.0
00:36 10.2 8.5 89 1003.4 5.4 SSW 8.3 0.0 0.0
00:37 10.2 8.5 89 1003.5 5.4 S 7.6 0.0 0.0
00:38 10.2 8.5 89 1003.3 6.0 SW 7.6 0.0 0.0
00:39 10.2 8.6 90 1003.4 6.9 WSW 7.6 0.0 0.0
00:40 10.2 8.6 90 1003.3 6.0 WSW 6.9 0.0 0.0
00:42 10.1 8.5 90 1003.6 4.5 WSW 6.9 0.0 0.0
00:43 10.1 8.5 90 1003.5 4.5 SW 6.9 0.0 0.0
00:44 10.1 8.5 90 1003.5 6.0 SW 6.9 0.0 0.0
00:45 10.1 8.5 90 1003.5 6.9 SW 6.9 0.0 0.0
00:46 10.1 8.5 90 1003.4 6.9 SW 6.9 0.0 0.0
00:47 10.1 8.5 90 1003.4 5.4 S 6.9 0.0 0.0
00:48 10.1 8.5 90 1003.3 5.4 SW 6.9 0.0 0.0
00:49 10.1 8.5 90 1003.4 5.4 SW 6.9 0.0 0.0
00:50 10.1 8.5 90 1003.5 6.9 SW 6.9 0.0 0.0
00:51 10.1 8.5 90 1003.4 7.6 S 7.6 0.0 0.0
00:52 10.1 8.5 90 1003.4 6.0 S 8.3 0.0 0.0
00:53 10.1 8.5 90 1003.4 6.0 SW 8.3 0.0 0.0
00:54 10.1 8.5 90 1003.3 6.0 SW 8.3 0.0 0.0
00:55 10.1 8.5 90 1003.2 6.0 SW 8.3 0.0 0.0
00:56 10.2 8.8 91 1003.3 6.9 SW 8.3 0.0 0.0
00:58 10.2 8.8 91 1003.3 6.0 W 8.3 0.0 0.0
00:59 10.2 8.8 91 1003.3 6.9 SW 8.3 0.0 0.0
01:00 10.2 8.8 91 1003.3 6.9 SW 8.3 0.0 0.0
01:01 10.2 8.8 91 1003.4 6.9 SW 8.3 0.0 0.0
01:02 10.2 8.8 91 1003.4 6.9 SW 6.9 0.0 0.0
01:03 10.2 8.8 91 1003.0 6.9 SW 6.9 0.0 0.0
01:04 10.2 8.8 91 1003.2 6.9 SW 6.9 0.0 0.0
01:05 10.2 8.8 91 1003.3 6.9 SW 6.9 0.0 0.0
01:06 10.2 8.8 91 1003.3 6.9 SW 6.9 0.0 0.0
01:07 10.2 8.8 91 1003.3 6.0 SW 6.9 0.0 0.0
01:08 10.2 9.0 92 1003.5 7.6 SW 7.6 0.0 0.0
01:09 10.2 9.0 92 1003.3 5.4 SW 7.6 0.0 0.0
01:10 10.2 9.0 92 1003.2 4.5 SSW 7.6 0.0 0.0
01:11 10.2 9.0 92 1003.2 4.5 SW 7.6 0.0 0.0
01:12 10.2 9.0 92 1003.2 6.9 SW 7.6 0.0 0.0
01:13 10.2 9.0 92 1003.2 6.9 SSW 7.6 0.0 0.0
01:14 10.2 9.0 92 1003.3 5.4 S 7.6 0.0 0.0
01:15 10.2 9.0 92 1003.4 5.4 SW 7.6 0.0 0.0
01:17 10.2 9.0 92 1003.3 5.4 SW 7.6 0.0 0.0
01:18 10.2 9.0 92 1003.3 5.4 SW 7.6 0.0 0.0
01:19 10.2 9.0 92 1003.3 5.4 SSW 6.9 0.0 0.0
01:20 10.2 9.1 93 1003.1 6.0 SW 6.9 0.0 0.0
01:21 10.2 9.1 93 1003.2 7.6 SW 7.6 0.0 0.0
01:22 10.2 9.1 93 1003.2 6.0 SSW 7.6 0.0 0.0
01:23 10.3 9.2 93 1003.3 6.0 W 7.6 0.0 0.0
01:24 10.3 9.2 93 1003.2 5.4 SW 7.6 0.0 0.0
01:25 10.3 9.2 93 1003.3 5.4 S 7.6 0.0 0.0
01:26 10.3 9.2 93 1003.3 8.3 SSW 8.3 0.0 0.0
01:27 10.3 9.2 93 1003.2 8.3 SW 8.3 0.0 0.0
01:28 10.4 9.3 93 1003.2 6.0 SW 8.3 0.0 0.0
01:29 10.4 9.5 94 1003.1 6.0 SW 8.3 0.0 0.0
01:30 10.4 9.5 94 1003.0 7.6 SE 8.3 0.0 0.0
01:31 10.4 9.5 94 1003.0 7.6 SW 8.3 0.0 0.0
01:32 10.4 9.5 94 1003.0 6.9 SW 8.3 0.0 0.0
01:33 10.4 9.5 94 1003.1 8.3 SSW 8.3 0.0 0.0
01:34 10.4 9.5 94 1003.0 8.3 SW 8.3 0.0 0.0
01:36 10.4 9.5 94 1003.0 7.6 W 8.3 0.0 0.0
01:37 10.4 9.5 94 1003.0 6.0 S 8.3 0.0 0.0
01:38 10.4 9.5 94 1003.1 6.0 SW 8.3 0.0 0.0
01:39 10.5 9.6 94 1003.0 6.0 SSW 8.3 0.0 0.0
01:40 10.5 9.7 95 1003.0 8.3 WSW 8.3 0.0 0.0
01:41 10.5 9.7 95 1002.9 9.2 NW 9.2 0.0 0.0
01:42 10.5 9.7 95 1003.1 6.0 W 9.2 0.0 0.0
01:43 10.5 9.7 95 1002.8 7.6 SW 9.2 0.0 0.0
01:44 10.5 9.7 95 1002.9 7.6 SW 9.2 0.0 0.0
01:45 10.5 9.7 95 1002.8 6.9 SW 9.2 0.0 0.0
01:46 10.5 9.7 95 1002.9 9.2 SW 9.2 0.0 0.0
01:47 10.5 9.7 95 1002.7 9.2 W 9.2 0.0 0.0
01:48 10.5 9.7 95 1002.7 6.0 SW 9.2 0.0 0.0
01:49 10.5 9.7 95 1002.8 6.0 SW 9.2 0.0 0.0
01:50 10.5 9.7 95 1002.9 6.9 SW 9.2 0.0 0.0
01:51 10.5 9.7 95 1002.9 6.0 SW 9.2 0.0 0.0
01:52 10.5 9.7 95 1002.8 8.3 SW 9.2 0.0 0.0
01:54 10.5 9.7 95 1002.8 7.6 SSW 9.2 0.0 0.0
01:55 10.5 9.7 95 1002.7 10.7 SW 10.7 0.0 0.0
01:56 10.5 9.7 95 1002.8 9.2 WSW 10.7 0.0 0.0
01:57 10.5 9.7 95 1002.8 7.6 SW 10.7 0.0 0.0
01:58 10.5 9.7 95 1002.8 7.6 SW 10.7 0.0 0.0
01:59 10.5 9.7 95 1002.8 7.6 SW 10.7 0.0 0.0
02:00 10.5 9.7 95 1002.8 9.8 W 10.7 0.0 0.0
02:01 10.5 9.9 96 1002.7 6.9 SW 10.7 0.0 0.0
02:02 10.5 9.9 96 1002.7 9.2 W 10.7 0.0 0.0
02:03 10.6 10.0 96 1002.8 13.0 S 13.0 0.0 0.0
02:04 10.6 10.0 96 1002.8 7.6 SW 13.0 0.0 0.0
02:05 10.6 10.0 96 1002.7 6.0 W 13.0 0.0 0.0
02:06 10.6 10.0 96 1002.7 6.9 SW 13.0 0.0 0.0
02:07 10.6 10.0 96 1003.0 6.0 SW 13.0 0.0 0.0
02:08 10.6 10.0 96 1002.9 10.7 SSW 13.0 0.0 0.0
02:09 10.6 10.0 96 1002.7 9.8 SW 13.0 0.0 0.0
02:10 10.6 10.0 96 1002.8 9.8 SW 13.0 0.0 0.0
02:11 10.6 10.0 96 1002.8 9.8 SW 13.0 0.0 0.0
02:12 10.6 10.0 96 1002.9 9.8 WSW 13.0 0.0 0.0
02:14 10.7 10.1 96 1002.9 8.3 WSW 10.7 0.0 0.0
02:15 10.7 10.1 96 1002.8 9.2 S 10.7 0.0 0.0
02:16 10.7 10.1 96 1003.0 9.8 SW 10.7 0.0 0.0
02:17 10.7 10.2 97 1002.7 6.9 SW 10.7 0.0 0.0
02:18 10.7 10.2 97 1002.8 6.9 S 10.7 0.0 0.0
02:19 10.8 10.3 97 1002.9 7.6 S 10.7 0.0 0.0
02:20 10.8 10.3 97 1002.8 7.6 SSW 10.7 0.0 0.0
02:21 10.8 10.3 97 1002.8 6.0 SW 10.7 0.0 0.0
02:22 10.8 10.3 97 1002.5 7.6 SW 10.7 0.0 0.0
02:23 10.8 10.3 97 1002.7 9.2 SW 10.7 0.0 0.0
02:24 10.9 10.4 97 1002.6 10.7 SW 10.7 0.0 0.0
02:25 10.9 10.4 97 1002.7 9.8 SW 10.7 0.0 0.0
02:26 10.9 10.4 97 1002.6 9.8 SW 10.7 0.0 0.0
02:27 10.9 10.4 97 1002.9 8.3 SW 10.7 0.0 0.0
02:29 11.0 10.7 98 1002.6 9.2 W 10.7 0.0 0.0
02:30 11.0 10.7 98 1002.7 9.8 SSW 10.7 0.0 0.0
02:31 11.0 10.7 98 1002.8 7.6 SW 10.7 0.0 0.0
02:32 11.0 10.7 98 1002.7 7.6 SW 10.7 0.0 0.0
02:33 11.1 10.8 98 1002.8 12.1 SW 13.0 0.0 0.0
02:34 11.1 10.8 98 1002.8 12.1 SW 13.0 0.0 0.0
02:35 11.1 10.8 98 1002.7 9.8 SW 13.0 0.0 0.0
02:36 11.1 10.8 98 1002.6 13.0 SW 13.0 0.0 0.0
02:37 11.2 10.9 98 1002.7 9.8 SW 13.0 0.0 0.0
02:38 11.2 10.9 98 1002.7 9.8 SW 13.0 0.0 0.0
02:39 11.2 10.9 98 1002.9 11.4 W 13.0 0.0 0.0
02:40 11.3 11.2 99 1002.8 8.3 W 13.0 0.0 0.0
02:41 11.3 11.2 99 1002.8 8.3 W 13.0 0.0 0.0
02:42 11.3 11.2 99 1002.9 8.3 W 13.0 0.0 0.0
02:43 11.3 11.2 99 1002.6 7.6 SW 13.0 0.0 0.0
02:44 11.3 11.2 99 1003.0 6.0 S 13.0 0.0 0.0
02:45 11.4 11.3 99 1002.7 9.8 SW 13.0 0.0 0.1
02:46 11.4 11.3 99 1002.9 6.9 SSW 11.4 0.8 0.1
02:48 11.4 11.3 99 1002.7 5.4 SW 11.4 0.8 0.1
02:49 11.4 11.3 99 1002.9 8.3 WSW 9.8 1.5 0.1
02:50 11.4 11.3 99 1002.8 6.9 SW 9.8 1.5 0.1
02:51 11.4 11.3 99 1002.7 5.4 WNW 9.8 0.8 0.1
02:52 11.4 11.3 99 1002.7 5.4 S 9.8 0.8 0.1
02:53 11.4 11.3 99 1002.8 5.4 SW 9.8 0.8 0.1
02:54 11.4 11.3 99 1002.9 6.0 W 9.8 0.0 0.1
02:55 11.4 11.3 99 1002.8 6.0 W 9.8 0.0 0.1
02:56 11.5 11.4 99 1002.9 7.6 SW 8.3 0.0 0.1
02:57 11.5 11.4 99 1002.9 6.9 SW 8.3 0.0 0.1
02:58 11.5 11.4 99 1002.8 9.2 WSW 9.2 0.0 0.1
02:59 11.5 11.4 99 1002.8 9.2 WSW 9.2 0.0 0.1
03:00 11.5 11.4 99 1002.7 10.7 SSW 10.7 0.0 0.1
03:01 11.5 11.4 99 1002.9 10.7 SSW 10.7 0.0 0.1
03:02 11.5 11.4 99 1002.8 10.7 SSW 10.7 0.0 0.1
03:03 11.5 11.4 99 1002.8 10.7 SSW 10.7 0.0 0.1
03:04 11.5 11.4 99 1002.9 10.7 SSW 10.7 0.0 0.1
03:05 11.5 11.4 99 1002.7 10.7 SSW 10.7 0.0 0.1
03:07 11.5 11.4 99 1002.8 7.6 W 10.7 0.0 0.1
03:08 11.5 11.4 99 1002.8 9.2 SW 10.7 0.0 0.1
03:09 11.5 11.4 99 1002.7 8.3 SW 10.7 0.0 0.1
03:10 11.5 11.4 99 1002.8 9.8 SW 10.7 0.0 0.1
03:11 11.5 11.4 99 1002.8 9.8 SW 10.7 0.0 0.1
03:12 11.5 11.4 99 1002.7 12.1 SW 12.1 0.0 0.1
03:13 11.5 11.4 99 1002.8 11.4 SW 12.1 0.0 0.1
03:14 11.5 11.4 99 1002.7 9.8 W 12.1 0.0 0.1
03:15 11.5 11.4 99 1002.8 7.6 SSW 12.1 0.0 0.1
03:16 11.5 11.4 99 1002.9 9.2 WSW 12.1 0.0 0.1
03:17 11.5 11.4 99 1002.6 12.1 SW 12.1 0.0 0.1
03:18 11.5 11.4 99 1002.7 9.2 SSW 12.1 0.0 0.1
03:19 11.5 11.4 99 1002.8 9.2 SW 12.1 0.0 0.1
03:20 11.5 11.4 99 1002.8 8.3 SW 12.1 0.0 0.1
03:21 11.5 11.4 99 1002.8 11.4 SSW 12.1 0.0 0.1
03:22 11.5 11.4 99 1002.9 11.4 W 12.1 0.0 0.1
03:24 11.5 11.4 99 1003.0 9.8 SW 12.1 0.0 0.1
03:25 11.5 11.4 99 1002.7 8.3 SW 12.1 0.0 0.1
03:26 11.5 11.4 99 1002.7 9.2 NW 12.1 0.0 0.1
03:27 11.5 11.4 99 1002.7 9.2 NW 12.1 0.0 0.1
03:28 11.5 11.4 99 1002.8 9.2 NW 11.4 0.0 0.1
03:29 11.5 11.4 99 1002.9 9.8 SW 11.4 0.0 0.1
03:30 11.5 11.4 99 1002.9 9.8 W 11.4 0.0 0.1
03:31 11.5 11.4 99 1002.9 6.0 W 11.4 0.0 0.1
03:32 11.4 11.3 99 1002.9 9.2 WSW 11.4 0.0 0.1
03:33 11.4 11.3 99 1003.0 6.0 SW 9.8 0.0 0.1
03:34 11.4 11.3 99 1002.9 9.2 SW 9.8 0.0 0.1
03:35 11.4 11.3 99 1002.8 6.9 NW 9.8 0.0 0.1
03:36 11.5 11.4 99 1003.0 7.6 W 9.8 0.0 0.1
03:37 11.5 11.5 100 1003.0 8.3 W 9.8 0.0 0.1
03:38 11.5 11.5 100 1002.9 6.9 W 9.8 0.0 0.1
03:39 11.5 11.5 100 1003.2 8.3 SW 9.8 0.0 0.1
03:41 11.5 11.5 100 1003.0 9.8 W 9.8 0.0 0.1
03:42 11.5 11.5 100 1002.8 7.6 SW 9.8 0.0 0.1
03:43 11.5 11.5 100 1003.1 6.9 SW 9.8 0.0 0.1
03:44 11.5 11.5 100 1003.0 6.9 SW 9.8 0.0 0.1
03:45 11.5 11.5 100 1003.1 5.4 SW 9.8 0.0 0.1
03:46 11.5 11.5 100 1003.0 9.2 W 9.8 0.0 0.1
03:47 11.5 11.5 100 1003.0 7.6 SW 9.8 0.0 0.1
03:48 11.5 11.5 100 1002.9 4.5 SSW 9.8 0.0 0.1
03:49 11.5 11.5 100 1003.1 7.6 W 9.8 0.0 0.1
03:50 11.5 11.5 100 1003.0 7.6 SW 9.8 0.0 0.1
03:51 11.5 11.5 100 1002.8 6.0 SW 9.8 0.0 0.1
03:52 11.5 11.5 100 1003.3 6.0 W 9.8 0.0 0.1
03:53 11.5 11.5 100 1003.4 10.7 SW 10.7 0.0 0.1
03:54 11.5 11.5 100 1003.1 8.3 SW 10.7 0.0 0.1
03:55 11.5 11.5 100 1003.0 8.3 W 10.7 0.0 0.1
03:56 11.5 11.5 100 1003.1 8.3 W 10.7 0.0 0.1
03:57 11.5 11.5 100 1003.2 5.4 SW 10.7 0.0 0.1
03:59 11.5 11.5 100 1003.2 7.6 S 10.7 0.0 0.1
04:00 11.5 11.5 100 1003.1 8.3 W 10.7 0.0 0.1
04:01 11.5 11.5 100 1003.1 4.5 SW 10.7 0.0 0.1
04:02 11.5 11.5 100 1002.9 5.4 W 10.7 0.0 0.1
04:03 11.5 11.5 100 1002.9 5.4 W 10.7 0.0 0.1
04:04 11.5 11.5 100 1003.0 6.9 W 8.3 0.0 0.1
04:05 11.5 11.5 100 1003.0 5.4 SW 8.3 0.0 0.1
04:06 11.4 11.4 100 1003.0 3.8 W 8.3 0.0 0.1
04:07 11.4 11.4 100 1003.0 6.9 SW 8.3 0.0 0.1
04:08 11.4 11.4 100 1003.2 3.8 SW 8.3 0.0 0.1
04:09 11.4 11.4 100 1003.1 6.0 W 8.3 0.0 0.1
04:10 11.4 11.4 100 1003.2 6.0 SW 8.3 0.0 0.1
04:11 11.4 11.4 100 1003.1 4.5 SW 7.6 0.0 0.1
04:12 11.4 11.4 100 1003.1 6.0 W 7.6 0.0 0.1
04:13 11.4 11.4 100 1003.2 5.4 SW 7.6 0.0 0.1
04:14 11.4 11.4 100 1003.2 4.5 SW 6.9 0.0 0.1
04:15 11.4 11.4 100 1003.1 5.4 SSW 6.9 0.0 0.1
04:16 11.4 11.4 100 1003.3 5.4 W 6.9 0.0 0.1
04:18 11.4 11.4 100 1003.2 4.5 SW 8.3 0.0 0.1
04:19 11.4 11.4 100 1003.2 6.0 SW 8.3 0.0 0.1
04:20 11.3 11.3 100 1003.0 6.9 SW 8.3 0.0 0.1
04:21 11.3 11.3 100 1003.0 4.5 SW 8.3 0.0 0.1
04:22 11.3 11.3 100 1003.0 4.5 SW 8.3 0.0 0.1
04:23 11.3 11.3 100 1003.1 4.5 SW 8.3 0.0 0.1
04:24 11.3 11.3 100 1003.0 4.5 SW 8.3 0.0 0.1
04:25 11.3 11.3 100 1003.3 6.0 SSW 8.3 0.0 0.1
04:26 11.3 11.3 100 1003.3 6.0 WSW 8.3 0.0 0.1
04:27 11.3 11.3 100 1003.1 6.0 SW 8.3 0.0 0.1
04:28 11.3 11.3 100 1003.2 5.4 SW 7.6 0.0 0.1
04:29 11.3 11.3 100 1002.9 5.4 W 7.6 0.0 0.1
04:30 11.3 11.3 100 1003.0 5.4 W 7.6 0.0 0.1
04:31 11.3 11.3 100 1003.2 6.0 W 6.9 0.0 0.1
04:32 11.3 11.3 100 1003.0 3.8 SW 6.9 0.0 0.1
04:34 11.3 11.3 100 1003.2 3.1 W 6.0 0.0 0.1
04:35 11.3 11.3 100 1003.4 3.8 SW 6.0 0.0 0.1
04:36 11.3 11.3 100 1003.2 3.8 SW 6.0 0.0 0.1
04:37 11.3 11.3 100 1003.1 6.9 W 6.9 0.0 0.1
04:38 11.3 11.3 100 1003.1 6.9 W 6.9 0.0 0.1
04:39 11.3 11.3 100 1003.0 6.9 WSW 6.9 0.0 0.1
04:40 11.2 11.2 100 1003.3 4.5 SW 6.9 0.0 0.1
04:41 11.2 11.2 100 1003.2 3.8 SW 6.9 0.0 0.1
04:42 11.3 11.3 100 1003.4 3.8 SW 6.9 0.0 0.1
04:43 11.2 11.2 100 1003.2 3.8 WSW 6.9 0.0 0.1
04:44 11.2 11.2 100 1003.1 3.8 W 6.9 0.0 0.1
04:45 11.2 11.2 100 1003.0 3.8 W 6.9 0.0 0.1
04:46 11.2 11.2 100 1003.1 6.9 W 6.9 0.0 0.1
04:47 11.2 11.2 100 1003.1 4.5 SW 6.9 0.0 0.1
04:49 11.2 11.2 100 1003.1 6.0 SW 6.9 0.0 0.1
04:50 11.2 11.2 100 1003.2 6.0 W 6.9 0.0 0.1
04:51 11.2 11.2 100 1003.2 3.8 SW 6.9 0.0 0.1
04:52 11.2 11.2 100 1003.3 3.8 SW 6.9 0.0 0.1
04:53 11.2 11.2 100 1003.1 3.8 SW 6.9 0.0 0.1
04:54 11.2 11.2 100 1003.1 4.5 SW 6.9 0.0 0.1
04:55 11.2 11.2 100 1003.2 6.0 SW 6.9 0.0 0.1
04:56 11.2 11.2 100 1003.4 5.4 SW 6.9 0.0 0.1
04:57 11.2 11.2 100 1003.3 6.9 SW 6.9 0.0 0.1
04:58 11.2 11.2 100 1003.3 6.9 SW 6.9 0.0 0.1
04:59 11.2 11.2 100 1003.1 3.8 SSW 6.9 0.0 0.1
05:00 11.2 11.2 100 1003.3 3.8 SW 6.9 0.0 0.1
05:01 11.2 11.2 100 1003.1 3.8 SW 6.9 0.0 0.1
05:03 11.2 11.2 100 1003.2 3.8 SW 6.9 0.0 0.1
05:04 11.2 11.2 100 1003.0 3.8 SW 6.9 0.0 0.1
05:05 11.2 11.2 100 1003.2 3.8 SW 6.9 0.0 0.1
05:06 11.1 11.1 100 1003.2 5.4 SW 6.9 0.0 0.1
05:07 11.1 11.1 100 1003.2 5.4 SW 6.9 0.0 0.1
05:08 11.1 11.1 100 1003.3 3.8 SW 6.9 0.0 0.1
05:09 11.0 11.0 100 1003.2 3.1 SW 5.4 0.0 0.1
05:10 11.0 11.0 100 1003.2 4.5 S 5.4 0.0 0.1
05:11 11.0 11.0 100 1003.4 3.1 SW 5.4 0.0 0.1
05:12 11.0 11.0 100 1003.4 5.4 SW 5.4 0.0 0.1
05:13 11.0 11.0 100 1003.3 3.8 SW 5.4 0.0 0.1
05:14 11.0 11.0 100 1003.3 4.5 SW 5.4 0.0 0.1
05:15 11.0 11.0 100 1003.2 3.8 SW 5.4 0.0 0.1
05:16 11.0 11.0 100 1003.2 3.8 SW 5.4 0.0 0.1
05:17 11.0 11.0 100 1003.0 3.1 W 5.4 0.0 0.1
05:18 11.0 11.0 100 1003.5 3.1 W 5.4 0.0 0.1
05:19 11.0 11.0 100 1003.4 3.1 WSW 5.4 0.0 0.1
05:20 11.0 11.0 100 1003.4 3.8 W 5.4 0.0 0.1
05:22 11.0 11.0 100 1003.0 3.8 SW 4.5 0.0 0.1
05:23 11.0 11.0 100 1003.1 3.8 SW 4.5 0.0 0.1
05:24 11.0 11.0 100 1003.2 3.8 SW 3.8 0.0 0.1
05:25 11.0 11.0 100 1003.2 3.8 SW 3.8 0.0 0.1
05:26 11.0 11.0 100 1003.3 3.8 SW 3.8 0.0 0.1
05:27 11.0 11.0 100 1003.4 3.8 SW 3.8 0.0 0.1
05:28 11.0 11.0 100 1003.2 4.5 SW 4.5 0.0 0.1
05:29 11.0 11.0 100 1003.3 3.1 W 4.5 0.0 0.1
05:30 11.0 11.0 100 1003.3 3.1 W 4.5 0.0 0.1
05:31 11.0 11.0 100 1003.2 3.1 W 4.5 0.0 0.1
05:32 11.0 11.0 100 1003.4 3.1 W 4.5 0.0 0.1
05:33 11.0 11.0 100 1003.2 3.1 W 4.5 0.0 0.1
05:34 11.0 11.0 100 1003.3 5.4 W 5.4 0.0 0.1
05:35 11.1 11.1 100 1003.1 5.4 W 5.4 0.0 0.1
05:36 11.1 11.1 100 1003.1 5.4 W 5.4 0.0 0.1
05:37 11.1 11.1 100 1003.2 5.4 W 5.4 0.0 0.1
05:38 11.1 11.1 100 1003.3 5.4 W 5.4 0.0 0.1
05:40 11.1 11.1 100 1003.2 7.6 SW 7.6 0.0 0.1
05:41 11.1 11.1 100 1003.1 6.0 SW 7.6 0.0 0.1
05:42 11.1 11.1 100 1003.3 6.0 SW 7.6 0.0 0.1
05:43 11.1 11.1 100 1003.3 4.5 W 7.6 0.0 0.1
05:44 11.1 11.1 100 1003.2 4.5 W 7.6 0.0 0.1
05:45 11.2 11.2 100 1003.2 5.4 W 7.6 0.0 0.1
05:46 11.2 11.2 100 1003.1 5.4 W 7.6 0.0 0.1
05:47 11.2 11.2 100 1003.1 4.5 SW 7.6 0.0 0.1
05:48 11.2 11.2 100 1003.2 5.4 SW 7.6 0.0 0.1
05:49 11.2 11.2 100 1003.4 5.4 SW 7.6 0.0 0.1
05:50 11.2 11.2 100 1003.3 4.5 WSW 7.6 0.0 0.1
05:51 11.2 11.2 100 1003.1 4.5 WSW 6.0 0.0 0.1
05:52 11.2 11.2 100 1003.2 4.5 WSW 6.0 0.0 0.1
05:53 11.2 11.2 100 1003.3 6.0 SW 6.0 0.0 0.1
05:54 11.2 11.2 100 1003.2 5.4 SW 6.0 0.0 0.1
05:55 11.2 11.2 100 1003.3 5.4 SW 6.0 0.0 0.1
05:56 11.2 11.2 100 1003.3 5.4 SW 6.0 0.0 0.1
05:59 11.2 11.2 100 1003.2 6.0 SW 6.0 0.0 0.1
06:00 11.2 11.2 100 1003.3 6.0 SW 6.0 0.0 0.1
06:01 11.2 11.2 100 1003.2 5.4 WSW 6.0 0.0 0.1
06:02 11.2 11.2 100 1003.2 5.4 WSW 6.0 0.0 0.1
06:03 11.2 11.2 100 1003.5 6.9 WSW 6.9 0.0 0.1
06:04 11.2 11.2 100 1003.4 6.9 WSW 6.9 0.0 0.1
06:05 11.2 11.2 100 1003.3 6.0 SW 6.9 0.0 0.1
06:06 11.2 11.2 100 1003.4 6.0 SW 6.9 0.0 0.1
06:07 11.2 11.2 100 1003.4 6.0 SW 6.9 0.0 0.1
06:08 11.3 11.3 100 1003.3 5.4 SW 6.9 0.0 0.1
06:09 11.3 11.3 100 1003.1 7.6 SW 7.6 0.0 0.1
06:10 11.3 11.3 100 1003.2 7.6 SW 7.6 0.0 0.1
06:11 11.3 11.3 100 1003.3 6.0 S 7.6 0.0 0.1
06:12 11.3 11.3 100 1003.3 7.6 W 7.6 0.0 0.1
06:13 11.3 11.3 100 1003.4 7.6 SW 7.6 0.0 0.1
06:15 11.3 11.3 100 1003.4 8.3 S 8.3 0.0 0.1
06:16 11.3 11.3 100 1003.4 8.3 S 8.3 0.0 0.1
06:17 11.4 11.4 100 1003.4 7.6 W 8.3 0.0 0.1
06:18 11.4 11.4 100 1003.4 7.6 W 8.3 0.0 0.1
06:19 11.4 11.4 100 1003.5 6.9 W 8.3 0.0 0.1
06:20 11.4 11.4 100 1003.2 7.6 S 8.3 0.0 0.1
06:21 11.4 11.4 100 1003.3 7.6 S 8.3 0.0 0.1
06:22 11.5 11.5 100 1003.5 6.0 W 8.3 0.0 0.1
06:23 11.5 11.5 100 1003.4 7.6 SW 8.3 0.0 0.1
06:24 11.5 11.5 100 1003.4 6.9 WSW 8.3 0.0 0.1
06:25 11.5 11.5 100 1003.5 5.4 WSW 8.3 0.0 0.1
06:26 11.5 11.5 100 1003.3 5.4 WSW 8.3 0.0 0.1
06:27 11.6 11.6 100 1003.5 6.9 SW 7.6 0.0 0.1
06:28 11.6 11.6 100 1003.2 7.6 SW 7.6 0.0 0.1
06:29 11.6 11.6 100 1003.3 6.0 W 7.6 0.0 0.1
06:30 11.6 11.6 100 1003.5 6.0 W 7.6 0.0 0.1
06:31 11.6 11.6 100 1003.2 4.5 W 7.6 0.0 0.1
06:33 11.6 11.6 100 1003.4 6.0 SW 7.6 0.0 0.1
06:34 11.6 11.6 100 1003.4 7.6 W 7.6 0.0 0.1
06:35 11.6 11.6 100 1003.3 9.2 W 9.2 0.0 0.1
06:36 11.6 11.6 100 1003.4 9.2 SW 9.2 0.0 0.1
06:37 11.6 11.6 100 1003.4 9.2 SW 9.2 0.0 0.1
06:38 11.6 11.6 100 1003.3 5.4 SW 9.2 0.0 0.1
06:39 11.6 11.6 100 1003.3 5.4 SW 9.2 0.0 0.1
06:40 11.6 11.6 100 1003.5 6.9 SW 9.2 0.0 0.1
06:41 11.7 11.7 100 1003.5 7.6 SW 9.2 0.0 0.1
06:42 11.7 11.7 100 1003.5 7.6 SW 9.2 0.0 0.1
06:43 11.7 11.7 100 1003.4 6.0 SW 9.2 0.0 0.1
06:44 11.7 11.7 100 1003.5 6.0 SW 9.2 0.0 0.1
06:45 11.7 11.7 100 1003.5 6.0 SW 9.2 0.0 0.1
06:46 11.7 11.7 100 1003.2 6.9 NW 9.2 0.0 0.1
06:47 11.7 11.7 100 1003.6 4.5 SW 7.6 0.0 0.1
06:48 11.7 11.7 100 1003.7 6.9 SW 7.6 0.0 0.1
06:49 11.7 11.7 100 1003.4 5.4 W 7.6 0.0 0.1
06:50 11.7 11.7 100 1003.7 6.9 W 7.6 0.0 0.1
06:52 11.7 11.7 100 1003.7 5.4 SW 6.9 0.0 0.1
06:53 11.7 11.7 100 1003.4 6.9 SW 6.9 0.0 0.1
06:54 11.7 11.7 100 1003.6 7.6 SW 7.6 0.0 0.1
06:55 11.7 11.7 100 1003.5 6.9 W 7.6 0.0 0.1
06:56 11.8 11.8 100 1003.6 6.9 WSW 7.6 0.0 0.1
06:57 11.8 11.8 100 1003.6 6.9 SW 7.6 0.0 0.1
06:58 11.8 11.8 100 1003.5 6.0 S 7.6 0.0 0.1
06:59 11.8 11.8 100 1003.6 7.6 S 7.6 0.0 0.1
07:00 11.8 11.8 100 1003.4 6.0 SW 7.6 0.0 0.1
07:01 11.8 11.8 100 1003.6 6.0 SW 7.6 0.0 0.1
07:02 11.8 11.8 100 1003.6 6.0 SW 7.6 0.0 0.1
07:03 11.8 11.8 100 1003.5 6.0 SW 7.6 0.0 0.1
07:04 11.8 11.8 100 1003.5 6.0 SW 7.6 0.0 0.1
07:05 11.8 11.8 100 1003.6 6.0 SW 7.6 0.0 0.1
07:06 11.9 11.9 100 1003.4 7.6 WSW 7.6 0.0 0.1
07:07 11.9 11.9 100 1003.6 6.9 W 7.6 0.0 0.1
07:08 11.9 11.9 100 1003.6 7.6 SW 7.6 0.0 0.1
07:10 11.9 11.9 100 1003.6 7.6 SW 7.6 0.0 0.1
07:11 11.9 11.9 100 1003.6 7.6 SW 7.6 0.0 0.1
07:12 11.9 11.9 100 1003.6 7.6 SW 7.6 0.0 0.1
07:13 12.0 12.0 100 1003.7 7.6 WSW 7.6 0.0 0.1
07:14 12.0 12.0 100 1003.7 8.3 SW 8.3 0.0 0.1
07:15 12.0 12.0 100 1003.7 8.3 SW 8.3 0.0 0.1
07:16 12.0 12.0 100 1003.8 7.6 SW 8.3 0.0 0.1
07:17 12.0 12.0 100 1003.7 6.0 WSW 8.3 0.0 0.1
07:18 12.0 12.0 100 1003.5 6.0 W 8.3 0.0 0.1
07:19 12.0 12.0 100 1003.6 5.4 SW 8.3 0.0 0.1
07:20 12.0 12.0 100 1003.6 6.0 WSW 8.3 0.0 0.1
07:21 12.1 12.1 100 1003.6 7.6 W 8.3 0.0 0.1
07:22 12.1 12.1 100 1003.6 9.8 W 9.8 0.0 0.1
07:23 12.1 12.1 100 1003.7 6.0 SW 9.8 0.0 0.1
07:24 12.1 12.1 100 1003.8 8.3 W 9.8 0.0 0.1
07:25 12.2 12.2 100 1003.6 8.3 W 9.8 0.0 0.1
07:26 12.2 12.2 100 1003.8 8.3 SW 9.8 0.0 0.1
07:27 12.2 12.2 100 1003.6 8.3 WSW 9.8 0.0 0.1
07:29 12.3 12.3 100 1003.7 8.3 SW 10.7 0.0 0.1
07:30 12.3 12.3 100 1003.8 7.6 SW 10.7 0.0 0.1
07:31 12.3 12.3 100 1003.7 7.6 W 10.7 0.0 0.1
07:32 12.4 12.4 100 1003.6 9.8 SW 10.7 0.0 0.1
07:33 12.4 12.4 100 1003.8 10.7 W 10.7 0.0 0.1
07:34 12.4 12.4 100 1003.6 6.0 SW 10.7 0.0 0.1
07:35 12.5 12.2 98 1003.7 8.3 SW 10.7 0.0 0.1
07:36 12.5 12.2 98 1003.4 9.2 S 10.7 0.0 0.1
07:37 12.6 12.3 98 1003.7 8.3 W 10.7 0.0 0.1
07:38 12.6 12.3 98 1003.7 7.6 W 10.7 0.0 0.1
07:39 12.6 12.3 98 1003.5 8.3 S 10.7 0.0 0.1
07:40 12.7 12.4 98 1003.9 10.7 SW 10.7 0.0 0.1
07:41 12.7 12.4 98 1003.9 8.3 W 10.7 0.0 0.1
07:42 12.7 12.2 97 1003.7 9.2 W 10.7 0.0 0.1
07:43 12.8 12.3 97 1003.8 10.7 W 10.7 0.0 0.1
07:44 12.8 12.3 97 1003.8 9.2 S 10.7 0.0 0.1
07:45 12.8 12.3 97 1003.8 7.6 SW 10.7 0.0 0.1
07:47 12.8 12.2 96 1004.0 9.2 WSW 10.7 0.0 0.1
07:48 12.8 12.2 96 1003.7 9.2 SW 10.7 0.0 0.1
07:49 12.7 12.1 96 1003.8 7.6 SW 10.7 0.0 0.1
07:50 12.7 11.9 95 1003.8 6.9 SW 10.7 0.0 0.1
07:51 12.7 11.9 95 1003.8 6.9 SW 10.7 0.0 0.1
07:52 12.7 11.9 95 1003.9 6.9 WSW 10.7 0.0 0.1
07:53 12.7 11.9 95 1003.9 6.9 NW 10.7 0.0 0.1
07:54 12.7 11.8 94 1003.8 5.4 SW 10.7 0.0 0.1
07:55 12.7 11.8 94 1003.7 9.8 W 10.7 0.0 0.1
07:56 12.7 11.8 94 1004.0 7.6 WSW 9.8 0.0 0.1
07:57 12.7 11.8 94 1003.9 8.3 SW 9.8 0.0 0.1
07:58 12.7 11.8 94 1004.0 11.4 WSW 11.4 0.0 0.1
07:59 12.8 11.9 94 1004.0 9.8 W 11.4 0.0 0.1
08:00 12.8 11.7 93 1004.1 7.6 SW 11.4 0.0 0.1
08:01 12.9 11.8 93 1003.9 7.6 SW 11.4 0.0 0.1
08:02 12.9 11.8 93 1003.9 9.8 SW 11.4 0.0 0.1
08:03 12.9 11.8 93 1003.8 11.4 SW 11.4 0.0 0.1
08:05 13.0 11.9 93 1004.0 8.3 W 11.4 0.0 0.1
08:06 13.0 11.7 92 1004.2 8.3 SW 11.4 0.0 0.1
08:07 13.1 11.8 92 1004.1 9.2 W 11.4 0.0 0.1
08:08 13.1 11.8 92 1003.9 8.3 W 11.4 0.0 0.1
08:09 13.1 11.8 92 1003.8 6.9 WSW 11.4 0.0 0.1
08:10 13.2 11.8 91 1004.0 8.3 W 11.4 0.0 0.1
08:11 13.2 11.8 91 1003.9 8.3 SW 11.4 0.0 0.1
08:12 13.2 11.8 91 1003.7 10.7 W 11.4 0.0 0.1
08:13 13.2 11.6 90 1004.0 10.7 W 11.4 0.0 0.1
08:14 13.2 11.6 90 1003.9 9.2 SW 10.7 0.0 0.1
08:15 13.2 11.6 90 1004.0 9.2 W 10.7 0.0 0.1
08:16 13.2 11.6 90 1004.1 5.4 NW 10.7 0.0 0.1
08:17 13.2 11.4 89 1004.1 7.6 SW 10.7 0.0 0.1
08:18 13.2 11.4 89 1004.3 9.2 WSW 10.7 0.0 0.1
08:19 13.1 11.3 89 1004.2 10.7 W 10.7 0.0 0.1
08:20 13.1 11.3 89 1004.0 7.6 SW 10.7 0.0 0.1
08:21 13.0 11.1 88 1004.2 6.9 W 10.7 0.0 0.1
08:23 13.0 11.1 88 1004.0 6.9 W 10.7 0.0 0.1
08:24 13.0 10.9 87 1004.2 8.3 SW 10.7 0.0 0.1
08:25 12.9 10.8 87 1004.0 5.4 W 10.7 0.0 0.1
08:26 12.9 10.8 87 1004.2 6.0 W 10.7 0.0 0.1
08:27 12.9 10.8 87 1004.2 6.0 W 10.7 0.0 0.1
08:28 12.9 10.6 86 1004.2 8.3 W 10.7 0.0 0.1
08:29 12.9 10.6 86 1004.0 8.3 W 10.7 0.0 0.1
08:30 12.9 10.6 86 1004.3 6.0 SW 8.3 0.0 0.1
08:31 12.9 10.6 86 1004.4 7.6 NW 8.3 0.0 0.1
08:32 12.9 10.6 86 1004.1 5.4 W 8.3 0.0 0.1
08:33 13.0 10.9 87 1004.2 8.3 SW 8.3 0.0 0.1
08:34 13.1 11.0 87 1004.3 8.3 SW 8.3 0.0 0.1
08:35 13.1 11.0 87 1004.2 8.3 WSW 8.3 0.0 0.1
08:36 13.3 11.2 87 1004.1 6.9 SW 8.3 0.0 0.1
08:37 13.4 11.3 87 1004.4 7.6 SW 8.3 0.0 0.1
08:38 13.5 11.4 87 1004.3 8.3 SW 8.3 0.0 0.1
08:39 13.6 11.5 87 1004.1 12.1 SW 12.1 0.0 0.1
08:41 13.6 11.3 86 1004.1 14.5 W 15.9 0.0 0.1
08:42 13.6 11.1 85 1004.2 9.2 SW 15.9 0.0 0.1
08:43 13.6 11.1 85 1004.4 9.2 WSW 15.9 0.0 0.1
08:44 13.6 11.0 84 1004.2 9.2 WSW 15.9 0.0 0.1
08:45 13.6 11.0 84 1004.2 6.0 WNW 15.9 0.0 0.1
08:46 13.5 10.9 84 1004.4 9.8 NW 15.9 0.0 0.1
08:47 13.5 10.7 83 1004.4 9.2 WNW 15.9 0.0 0.1
08:48 13.5 10.7 83 1004.4 6.0 W 15.9 0.0 0.1
08:49 13.5 10.7 83 1004.3 6.0 W 15.9 0.0 0.1
08:50 13.5 10.7 83 1004.5 6.0 W 15.9 0.0 0.1
08:51 13.5 10.5 82 1004.3 3.8 W 15.9 0.0 0.1
08:52 13.6 10.6 82 1004.3 7.6 SSE 14.5 0.0 0.1
08:53 13.6 10.6 82 1004.4 8.3 WSW 9.8 0.0 0.1
08:54 13.6 10.6 82 1004.4 5.4 SW 9.8 0.0 0.1
08:55 13.7 10.7 82 1004.4 7.6 SW 9.8 0.0 0.1
08:56 13.7 10.7 82 1004.5 6.9 SW 9.2 0.0 0.1
08:57 13.8 10.8 82 1004.3 6.0 W 8.3 0.0 0.1
08:59 13.8 10.8 82 1004.3 8.3 SW 8.3 0.0 0.1
09:00 13.8 10.8 82 1004.6 8.3 SW 8.3 0.0 0.1
09:01 13.8 10.8 82 1004.4 8.3 SW 8.3 0.0 0.1
09:02 13.8 10.8 82 1004.4 8.3 SW 8.3 0.0 0.1
09:03 13.8 10.8 82 1004.4 8.3 SW 8.3 0.0 0.1
09:04 13.8 10.8 82 1004.3 8.3 SW 8.3 0.0 0.1
09:05 13.8 10.8 82 1004.4 8.3 SW 8.3 0.0 0.1
09:06 13.8 10.8 82 1004.3 8.3 SW 8.3 0.0 0.1
09:07 13.8 10.8 82 1004.4 8.3 SW 8.3 0.0 0.1
09:08 13.6 10.4 81 1004.3 7.6 WSW 8.3 0.0 0.1
09:09 13.6 10.4 81 1004.5 9.2 SW 9.2 0.0 0.1
09:10 13.6 10.4 81 1004.5 8.3 W 9.2 0.0 0.1
09:11 13.6 10.4 81 1004.4 7.6 NW 9.2 0.0 0.1
09:12 13.6 10.4 81 1004.4 7.6 W 9.2 0.0 0.1
09:13 13.6 10.4 81 1004.5 5.4 NW 9.2 0.0 0.1
09:14 13.6 10.4 81 1004.5 7.6 W 9.2 0.0 0.1
09:15 13.6 10.4 81 1004.4 7.6 SW 9.2 0.0 0.1
09:17 13.6 10.4 81 1004.5 5.4 NW 9.2 0.0 0.1
09:18 13.7 10.5 81 1004.6 6.0 W 9.2 0.0 0.1
09:19 13.7 10.5 81 1004.5 8.3 SW 9.2 0.0 0.1
09:20 13.7 10.5 81 1004.4 9.8 W 9.8 0.0 0.1
09:21 13.7 10.7 82 1004.6 9.8 SW 9.8 0.0 0.1
09:22 13.7 10.7 82 1004.4 9.8 W 9.8 0.0 0.1
09:23 13.8 10.8 82 1004.5 9.2 S 9.8 0.0 0.1
09:24 13.8 10.8 82 1004.7 8.3 SW 9.8 0.0 0.1
09:25 13.8 10.8 82 1004.7 9.2 SW 9.8 0.0 0.1
09:26 13.8 10.8 82 1004.5 7.6 W 9.8 0.0 0.1
09:27 13.8 10.8 82 1004.5 7.6 SW 9.8 0.0 0.1
09:28 13.8 10.8 82 1004.6 11.4 SW 11.4 0.0 0.1
09:29 13.8 10.8 82 1004.6 9.2 SW 11.4 0.0 0.1
09:30 13.8 10.6 81 1004.6 9.2 SW 11.4 0.0 0.1
09:31 13.8 10.6 81 1004.4 6.9 SW 11.4 0.0 0.1
09:32 13.8 10.8 82 1004.8 9.2 SW 11.4 0.0 0.1
09:33 13.8 10.8 82 1004.6 9.2 SW 11.4 0.0 0.1
09:34 13.8 10.8 82 1004.6 9.8 SW 11.4 0.0 0.1
09:36 13.8 10.6 81 1004.7 11.4 SW 11.4 0.0 0.1
09:37 13.8 10.6 81 1004.7 8.3 W 11.4 0.0 0.1
09:38 13.8 10.6 81 1004.7 7.6 SW 11.4 0.0 0.1
09:39 13.8 10.6 81 1004.7 7.6 SW 11.4 0.0 0.1
09:40 13.8 10.6 81 1004.7 6.0 W 11.4 0.0 0.1
09:41 13.9 10.7 81 1004.7 9.2 SW 11.4 0.0 0.1
09:42 13.9 10.7 81 1004.8 6.0 NW 11.4 0.0 0.1
09:43 13.9 10.7 81 1004.8 6.9 WSW 11.4 0.0 0.1
09:44 14.0 10.8 81 1005.0 8.3 SW 11.4 0.0 0.1
09:45 14.0 10.8 81 1004.6 8.3 SW 11.4 0.0 0.1
09:46 14.0 10.8 81 1004.8 9.2 W 11.4 0.0 0.1
09:47 14.0 10.8 81 1004.6 9.2 W 11.4 0.0 0.1
09:48 14.0 10.8 81 1004.6 8.3 W 9.2 0.0 0.1
09:49 14.0 10.8 81 1004.6 6.0 WSW 9.2 0.0 0.1
09:50 14.1 10.7 80 1004.7 10.7 SW 10.7 0.0 0.1
09:51 14.1 10.7 80 1004.8 11.4 SW 11.4 0.0 0.1
09:52 14.1 10.7 80 1004.9 6.0 SW 11.4 0.0 0.1
09:54 14.1 10.7 80 1004.6 6.0 SW 11.4 0.0 0.1
09:55 14.1 10.7 80 1004.8 7.6 WSW 11.4 0.0 0.1
09:56 14.1 10.7 80 1004.8 9.2 SW 11.4 0.0 0.1
09:57 14.2 10.8 80 1004.8 4.5 SW 11.4 0.0 0.1
09:58 14.2 10.8 80 1004.8 4.5 SW 11.4 0.0 0.1
09:59 14.3 10.9 80 1004.8 6.0 W 11.4 0.0 0.1
10:00 14.6 11.2 80 1004.9 6.9 WSW 11.4 0.0 0.1
10:01 14.7 11.3 80 1004.8 6.9 SW 11.4 0.0 0.1
10:02 14.8 11.4 80 1004.8 6.9 W 9.2 0.0 0.1
10:03 14.9 11.5 80 1004.7 6.9 SW 9.2 0.0 0.1
10:04 15.0 11.4 79 1004.7 6.9 N 9.2 0.0 0.1
10:05 15.1 11.5 79 1004.8 9.2 SW 9.2 0.0 0.1
10:06 15.1 11.5 79 1004.7 7.6 SW 9.2 0.0 0.1
10:07 15.2 11.4 78 1004.8 7.6 WNW 9.2 0.0 0.1
10:08 15.2 11.2 77 1004.8 9.2 NW 9.2 0.0 0.1
10:09 15.2 11.0 76 1004.9 7.6 SW 9.2 0.0 0.1
10:10 15.2 11.0 76 1004.7 4.5 W 9.2 0.0 0.1
10:11 15.2 11.0 76 1004.7 6.0 NW 9.2 0.0 0.1
10:13 15.1 10.7 75 1004.7 4.5 N 9.2 0.0 0.1
10:14 15.1 10.7 75 1005.0 7.6 SSW 9.2 0.0 0.1
10:15 15.1 10.7 75 1004.8 7.6 E 9.2 0.0 0.1
10:16 15.1 10.7 75 1005.1 5.4 SW 9.2 0.0 0.1
10:17 15.2 10.8 75 1004.9 4.5 SW 9.2 0.0 0.1
10:18 15.2 11.0 76 1004.8 9.2 W 9.2 0.0 0.1
10:19 15.2 11.0 76 1004.9 9.2 SW 9.2 0.0 0.1
10:20 15.3 11.1 76 1004.8 8.3 NNW 9.2 0.0 0.1
10:21 15.3 11.1 76 1004.8 8.3 W 9.2 0.0 0.1
10:22 15.2 11.0 76 1004.8 7.6 SW 9.2 0.0 0.1
10:23 15.2 11.0 76 1005.0 7.6 NW 9.2 0.0 0.1
10:24 15.2 11.0 76 1005.0 9.8 W 9.8 0.0 0.1
10:25 15.1 10.7 75 1004.9 9.8 NW 9.8 0.0 0.1
10:26 15.0 10.6 75 1004.9 6.0 NE 9.8 0.0 0.1
10:27 14.9 10.5 75 1005.0 6.9 W 9.8 0.0 0.1
10:28 14.9 10.5 75 1005.0 5.4 W 9.8 0.0 0.1
10:29 14.7 10.5 76 1005.0 3.8 S 9.8 0.0 0.1
10:30 14.7 10.5 76 1005.1 3.8 S 9.8 0.0 0.1
10:32 14.7 10.5 76 1005.0 3.8 S 9.8 0.0 0.1
10:33 14.7 10.5 76 1005.1 3.8 S 9.8 0.0 0.1
10:34 14.5 10.7 78 1005.0 5.4 SW 9.8 0.0 0.1
10:35 14.5 10.7 78 1005.0 5.4 SW 6.9 0.0 0.1
10:36 14.5 10.7 78 1005.1 5.4 SW 6.9 0.0 0.1
10:37 14.4 10.8 79 1005.0 6.0 SW 6.9 0.0 0.1
10:38 14.4 10.8 79 1005.2 9.8 SW 9.8 0.0 0.1
10:39 14.4 10.8 79 1004.9 8.3 WSW 9.8 0.0 0.1
10:40 14.3 10.7 79 1005.2 7.6 SE 9.8 0.0 0.1
10:41 14.3 10.7 79 1005.1 9.8 WSW 9.8 0.0 0.1
10:42 14.3 10.7 79 1005.1 9.8 SW 9.8 0.0 0.1
10:43 14.3 10.7 79 1005.1 9.2 SW 9.8 0.0 0.1
10:44 14.3 10.5 78 1005.3 9.8 W 9.8 0.0 0.1
10:45 14.3 10.5 78 1005.2 9.8 W 9.8 0.0 0.1
10:46 14.3 10.1 76 1005.2 6.9 W 9.8 0.0 0.1
10:47 14.3 10.1 76 1005.1 6.0 W 9.8 0.0 0.1
10:48 14.2 9.8 75 1005.0 7.6 W 9.8 0.0 0.1
10:49 14.2 9.6 74 1005.0 6.9 NW 9.8 0.0 0.1
10:51 14.2 9.6 74 1005.0 6.9 W 9.8 0.0 0.1
10:52 14.2 9.4 73 1005.1 6.0 W 9.8 0.0 0.1
10:53 14.3 9.5 73 1005.1 6.9 SSW 9.8 0.0 0.1
10:54 14.3 9.5 73 1005.1 8.3 SW 9.8 0.0 0.1
10:55 14.3 9.5 73 1005.1 8.3 SW 9.8 0.0 0.1
10:56 14.4 9.8 74 1005.1 7.6 SW 8.3 0.0 0.1
10:57 14.4 9.8 74 1005.1 6.9 S 8.3 0.0 0.1
10:58 14.4 9.8 74 1005.1 9.8 SW 9.8 0.0 0.1
10:59 14.4 9.8 74 1005.3 9.2 SW 9.8 0.0 0.1
11:00 14.5 9.9 74 1005.2 9.2 WSW 9.8 0.0 0.1
11:01 14.5 9.9 74 1005.2 9.2 WSW 9.8 0.0 0.1
11:02 14.5 9.9 74 1005.3 9.2 WSW 9.8 0.0 0.1
11:03 14.5 9.9 74 1005.1 9.2 WSW 9.8 0.0 0.1
11:04 14.5 9.9 74 1005.2 9.2 WSW 9.8 0.0 0.1
11:05 14.6 9.8 73 1005.2 9.2 WSW 9.8 0.0 0.1
11:06 14.6 9.8 73 1005.2 8.3 WSW 9.8 0.0 0.1
11:07 14.6 9.8 73 1005.2 9.2 SW 9.8 0.0 0.1
11:09 14.7 9.9 73 1005.4 6.9 SW 10.7 0.0 0.1
11:10 14.8 10.2 74 1005.2 6.9 S 10.7 0.0 0.1
11:11 14.8 10.2 74 1005.3 5.4 WSW 10.7 0.0 0.1
11:12 14.9 10.3 74 1005.4 5.4 SW 10.7 0.0 0.1
11:13 14.9 10.5 75 1005.2 9.8 SW 10.7 0.0 0.1
11:14 14.9 10.5 75 1005.2 13.0 SW 13.0 0.0 0.1
11:15 14.9 10.3 74 1005.2 9.8 SW 13.0 0.0 0.1
11:16 14.9 10.3 74 1005.4 10.7 W 13.0 0.0 0.1
11:17 15.0 10.4 74 1005.3 9.2 SW 13.0 0.0 0.1
11:18 15.0 10.4 74 1005.3 12.1 SW 13.0 0.0 0.1
11:19 15.0 10.4 74 1005.3 11.4 SW 13.0 0.0 0.1
11:20 15.0 10.2 73 1005.5 9.8 NNW 13.0 0.0 0.1
11:21 15.0 10.2 73 1005.3 9.8 W 13.0 0.0 0.1
11:22 15.0 10.2 73 1005.3 9.8 WNW 13.0 0.0 0.1
11:23 15.0 10.0 72 1005.3 7.6 SW 13.0 0.0 0.1
11:24 15.1 10.1 72 1005.3 5.4 S 13.0 0.0 0.1
11:25 15.2 10.4 73 1005.6 9.8 S 12.1 0.0 0.1
11:26 15.3 10.5 73 1005.3 9.8 SW 12.1 0.0 0.1
11:27 15.4 10.4 72 1005.6 13.0 SW 13.0 0.0 0.1
11:28 15.4 10.4 72 1005.4 9.8 SW 13.0 0.0 0.1
11:29 15.4 10.4 72 1005.4 6.0 WSW 13.0 0.0 0.1
11:31 15.5 10.5 72 1005.4 10.7 SW 13.0 0.0 0.1
11:32 15.5 10.3 71 1005.4 10.7 SW 13.0 0.0 0.1
11:33 15.5 10.1 70 1005.4 10.7 SW 13.6 0.0 0.1
11:34 15.5 10.1 70 1005.5 8.3 SW 13.6 0.0 0.1
11:35 15.5 10.1 70 1005.5 8.3 SW 13.6 0.0 0.1
11:36 15.5 10.1 70 1005.4 7.6 W 13.6 0.0 0.1
11:37 15.5 10.1 70 1005.3 6.0 WNW 13.6 0.0 0.1
11:38 15.5 10.1 70 1005.4 6.0 N 13.6 0.0 0.1
11:39 15.5 10.1 70 1005.4 9.2 WSW 13.6 0.0 0.1
11:40 15.6 10.2 70 1005.2 5.4 NW 13.6 0.0 0.1
11:41 15.6 10.4 71 1005.3 6.9 W 13.6 0.0 0.1
11:42 15.6 10.4 71 1005.5 8.3 SW 13.6 0.0 0.1
11:43 15.6 10.4 71 1005.4 8.3 SW 13.6 0.0 0.1
11:44 15.6 10.4 71 1005.7 9.2 SW 9.8 0.0 0.1
11:45 15.7 10.5 71 1005.6 9.8 SW 9.8 0.0 0.1
11:46 15.7 10.5 71 1005.7 6.9 W 9.8 0.0 0.1
11:47 15.7 10.3 70 1005.4 6.0 WSW 9.8 0.0 0.1
11:48 15.7 10.3 70 1005.4 7.6 W 9.8 0.0 0.1
11:50 15.9 10.4 70 1005.5 9.8 WSW 9.8 0.0 0.1
11:51 15.9 10.4 70 1005.6 6.9 S 9.8 0.0 0.1
11:52 16.0 10.8 71 1005.4 7.6 SW 9.8 0.0 0.1
11:53 16.1 10.8 71 1005.6 11.4 SW 11.4 0.0 0.1
11:54 16.1 10.8 71 1005.6 11.4 SW 11.4 0.0 0.1
11:55 16.1 10.6 70 1005.4 12.1 W 12.1 0.0 0.1
11:56 16.1 10.6 70 1005.5 11.4 SW 12.1 0.0 0.1
11:57 16.1 10.6 70 1005.4 9.8 SW 12.1 0.0 0.1
11:58 16.1 10.6 70 1005.3 9.8 WSW 12.1 0.0 0.1
11:59 16.2 10.7 70 1005.4 7.6 SW 12.1 0.0 0.1
12:00 16.3 11.0 71 1005.5 7.6 SW 12.1 0.0 0.1
12:01 16.3 11.0 71 1005.2 7.6 SW 12.1 0.0 0.1
12:02 16.3 11.0 71 1005.4 7.6 SW 12.1 0.0 0.1
12:03 16.3 11.0 71 1005.3 7.6 SW 12.1 0.0 0.1
12:04 16.3 11.0 71 1005.4 7.6 SW 12.1 0.0 0.1
12:05 17.0 11.3 69 1005.3 10.7 WSW 11.4 0.0 0.1
12:06 17.0 11.3 69 1005.3 10.7 WSW 10.7 0.0 0.1
12:07 16.9 11.2 69 1005.4 9.8 W 10.7 0.0 0.1
12:09 16.6 10.9 69 1005.5 9.2 SSW 10.7 0.0 0.1
12:10 16.5 10.8 69 1005.5 10.7 SW 10.7 0.0 0.1
12:11 16.4 10.7 69 1005.5 8.3 WSW 10.7 0.0 0.1
12:12 16.3 10.6 69 1005.5 8.3 SW 10.7 0.0 0.1
12:13 16.1 10.4 69 1005.4 8.3 SW 10.7 0.0 0.1
12:14 16.0 10.3 69 1005.6 5.4 NW 10.7 0.0 0.1
12:15 15.9 10.2 69 1005.3 6.0 W 10.7 0.0 0.1
12:16 15.7 10.0 69 1005.4 6.9 SW 10.7 0.0 0.1
12:17 15.6 9.9 69 1005.4 6.9 WSW 10.7 0.0 0.1
12:18 15.6 10.2 70 1005.5 6.9 SW 10.7 0.0 0.1
12:19 15.5 10.1 70 1005.4 6.9 W 10.7 0.0 0.1
12:20 15.4 10.0 70 1005.5 5.4 SW 10.7 0.0 0.1
12:21 15.3 9.9 70 1005.3 5.4 WSW 8.3 0.0 0.1
12:22 15.3 9.9 70 1005.3 8.3 W 8.3 0.0 0.1
12:23 15.1 9.9 71 1005.5 8.3 W 8.3 0.0 0.1
12:24 15.1 9.9 71 1005.5 8.3 SW 8.3 0.0 0.1
12:25 15.0 9.8 71 1005.4 5.4 WSW 8.3 0.0 0.1
12:26 15.0 9.8 71 1005.5 6.0 W 8.3 0.0 0.1
12:28 14.9 9.9 72 1005.5 5.4 SW 8.3 0.0 0.1
12:29 14.8 9.8 72 1005.7 7.6 WSW 8.3 0.0 0.1
12:30 14.8 9.8 72 1005.8 7.6 SW 8.3 0.0 0.1
12:31 14.8 9.8 72 1005.5 6.9 W 8.3 0.0 0.1
12:32 14.8 9.8 72 1005.6 7.6 SSW 8.3 0.0 0.1
12:33 14.7 9.7 72 1005.6 7.6 NW 8.3 0.0 0.1
12:34 14.7 9.7 72 1005.8 7.6 NW 8.3 0.0 0.1
12:35 14.7 9.7 72 1005.6 7.6 NW 8.3 0.0 0.1
12:36 14.6 9.8 73 1005.5 5.4 WNW 7.6 0.0 0.1
12:37 14.5 9.7 73 1005.7 6.9 W 7.6 0.0 0.1
12:38 14.5 9.9 74 1005.7 4.5 W 7.6 0.0 0.1
12:39 14.4 9.8 74 1005.6 3.8 W 7.6 0.0 0.1
12:40 14.4 9.8 74 1005.7 3.8 NW 7.6 0.0 0.1
12:41 14.3 9.7 74 1005.7 5.4 S 7.6 0.0 0.1
12:42 14.3 9.7 74 1005.8 7.6 SW 7.6 0.0 0.1
12:43 14.2 9.6 74 1005.5 4.5 W 7.6 0.0 0.1
12:44 14.2 9.6 74 1005.7 8.3 SW 8.3 0.0 0.1
12:45 14.2 9.8 75 1005.7 9.8 WSW 9.8 0.0 0.1
12:47 14.1 9.9 76 1005.7 9.2 SW 9.8 0.8 0.2
12:48 14.0 9.8 76 1005.7 7.6 SW 9.8 0.8 0.2
12:49 13.9 10.1 78 1005.5 6.9 SW 9.8 0.8 0.3
12:50 13.9 10.3 79 1005.7 9.2 SSW 9.8 1.5 0.3
12:51 13.9 10.3 79 1005.7 9.2 SSW 9.8 1.5 0.3
12:52 13.8 10.2 79 1005.6 9.2 S 11.4 0.8 0.3
12:53 13.8 10.2 79 1005.8 13.6 SSE 13.6 0.8 0.3
12:54 13.8 10.2 79 1005.6 10.7 SW 13.6 0.8 0.3
12:55 13.8 10.4 80 1005.8 10.7 S 13.6 0.0 0.3
12:56 13.8 10.4 80 1005.8 9.2 SW 13.6 0.0 0.3
12:57 13.8 10.4 80 1006.0 8.3 S 13.6 0.0 0.3
12:58 13.8 10.4 80 1005.7 8.3 SW 13.6 0.0 0.3
12:59 13.9 10.5 80 1005.8 8.3 SW 13.6 0.0 0.3
13:00 13.9 10.5 80 1005.8 9.8 SSE 13.6 0.0 0.3
13:01 13.9 10.5 80 1005.8 9.8 SSE 13.6 0.0 0.3
13:02 13.9 10.5 80 1005.8 9.8 SSE 13.6 0.0 0.3
13:03 13.9 10.5 80 1005.9 9.8 SSE 10.7 0.0 0.3
13:04 13.9 10.5 80 1005.8 9.8 SSE 10.7 0.0 0.3
13:06 14.4 10.8 79 1005.8 9.2 SW 9.8 0.0 0.3
13:07 14.4 10.8 79 1005.8 9.8 SW 9.8 0.0 0.3
13:08 14.5 10.9 79 1006.0 9.8 SW 9.8 0.0 0.3
13:09 14.6 11.0 79 1005.9 6.0 SW 9.8 0.0 0.3
13:10 14.6 11.0 79 1005.9 6.0 SW 9.8 0.0 0.3
13:11 14.7 11.1 79 1005.9 7.6 S 9.8 0.0 0.3
13:12 14.9 11.3 79 1006.1 9.2 SW 9.8 0.0 0.3
13:13 14.9 11.3 79 1005.7 8.3 SW 9.8 0.0 0.3
13:14 15.0 11.4 79 1005.9 6.9 SW 9.8 0.0 0.3
13:15 15.1 11.5 79 1006.0 6.9 SW 9.8 0.0 0.3
13:16 15.2 11.4 78 1006.0 6.9 S 9.8 0.0 0.3
13:17 15.3 11.3 77 1005.9 10.7 SW 10.7 0.0 0.3
13:18 15.4 11.2 76 1006.0 7.6 S 10.7 0.0 0.3
13:19 15.4 11.2 76 1006.0 7.6 SW 10.7 0.0 0.3
13:20 15.6 11.2 75 1005.9 6.9 SW 10.7 0.0 0.3
13:21 15.7 11.3 75 1005.9 9.2 S 10.7 0.0 0.3
13:22 15.8 11.4 75 1006.0 9.2 S 10.7 0.0 0.3
13:23 15.9 11.3 74 1006.0 9.2 SE 10.7 0.0 0.3
13:24 16.0 11.4 74 1006.1 6.9 SW 10.7 0.0 0.3
13:25 16.1 11.3 73 1006.0 9.2 S 10.7 0.0 0.3
13:26 16.2 11.4 73 1005.9 9.2 SSW 10.7 0.0 0.3
13:27 16.2 11.2 72 1006.1 10.7 SW 10.7 0.0 0.3
13:29 16.1 10.8 71 1006.0 7.6 SSW 10.7 0.0 0.3
13:30 16.1 10.8 71 1005.9 7.6 SW 10.7 0.0 0.3
13:31 16.1 10.6 70 1006.0 9.2 SW 10.7 0.0 0.3
13:32 16.1 10.6 70 1006.2 9.2 SW 10.7 0.0 0.3
13:33 16.0 10.5 70 1006.1 10.7 W 10.7 0.0 0.3
13:34 16.0 10.5 70 1006.0 9.2 W 10.7 0.0 0.3
13:35 15.9 10.4 70 1006.2 8.3 SW 10.7 0.0 0.3
13:36 15.9 10.4 70 1006.1 9.2 SW 10.7 0.0 0.3
13:37 15.9 10.4 70 1006.0 6.9 W 10.7 0.0 0.3
13:38 15.9 10.4 70 1006.1 5.4 SW 10.7 0.0 0.3
13:39 15.9 10.4 70 1006.0 6.0 SW 10.7 0.0 0.3
13:40 16.0 10.5 70 1006.0 6.0 SW 10.7 0.0 0.3
13:41 16.0 10.8 71 1006.2 7.6 SW 10.7 0.0 0.3
13:42 16.0 10.5 70 1006.1 8.3 NNW 10.7 0.0 0.3
13:43 16.0 10.5 70 1006.0 8.3 NNW 9.2 0.0 0.3
13:44 16.0 10.5 70 1006.1 9.8 SW 9.8 0.0 0.3
13:45 15.9 10.4 70 1006.1 7.6 SW 9.8 0.0 0.3
13:46 15.9 10.4 70 1006.0 7.6 W 9.8 0.0 0.3
13:47 15.9 10.4 70 1006.0 6.0 WSW 9.8 0.0 0.3
13:48 15.9 10.4 70 1006.1 5.4 NW 9.8 0.0 0.3
13:50 15.9 10.7 71 1006.2 9.8 WSW 11.4 0.0 0.3
13:51 15.9 10.7 71 1006.2 6.9 S 11.4 0.0 0.3
13:52 15.9 10.7 71 1006.1 6.0 S 11.4 0.0 0.3
13:53 16.0 11.0 72 1006.1 9.8 SW 11.4 0.0 0.3
13:54 16.0 11.0 72 1006.2 10.7 SW 11.4 0.0 0.3
13:55 16.0 11.0 72 1006.4 6.9 S 11.4 0.0 0.3
13:56 16.1 10.8 71 1005.9 5.4 W 11.4 0.0 0.3
13:57 16.1 10.8 71 1006.1 6.0 SW 11.4 0.0 0.3
13:58 16.2 10.9 71 1006.2 8.3 SW 11.4 0.0 0.3
13:59 16.2 10.9 71 1005.9 9.8 SSW 11.4 0.0 0.3
14:00 16.3 11.0 71 1006.2 9.8 S 10.7 0.0 0.3
14:01 16.3 11.0 71 1006.2 9.8 S 10.7 0.0 0.3
14:02 16.3 11.0 71 1005.9 9.8 S 10.7 0.0 0.3
14:03 16.3 11.0 71 1006.3 9.8 S 10.7 0.0 0.3
14:05 16.6 11.3 71 1006.0 11.4 W 11.4 0.0 0.3
14:06 16.7 11.4 71 1006.1 8.3 W 11.4 0.0 0.3
14:07 16.8 11.5 71 1006.1 7.6 SW 11.4 0.0 0.3
14:08 16.9 11.6 71 1006.3 9.2 SW 11.4 0.0 0.3
14:09 17.1 12.0 72 1005.9 6.9 WSW 11.4 0.0 0.3
14:10 17.2 12.1 72 1006.4 7.6 S 11.4 0.0 0.3
14:11 17.2 12.1 72 1006.3 7.6 S 11.4 0.0 0.3
14:12 17.1 11.6 70 1006.2 7.6 SW 11.4 0.0 0.3
14:13 17.0 11.5 70 1006.0 7.6 SW 11.4 0.0 0.3
14:14 16.9 11.4 70 1006.1 6.0 SSW 11.4 0.0 0.3
14:15 16.8 11.1 69 1005.8 8.3 SW 11.4 0.0 0.3
14:16 16.6 10.9 69 1006.1 8.3 SW 9.2 0.0 0.3
14:17 16.6 10.9 69 1006.1 11.4 SE 11.4 0.0 0.3
14:18 16.5 11.0 70 1006.1 11.4 SW 11.4 0.0 0.3
14:19 16.4 10.9 70 1006.3 10.7 SW 11.4 0.0 0.3
14:20 16.3 10.8 70 1006.2 9.2 SW 11.4 0.0 0.3
14:21 16.2 10.7 70 1006.2 6.0 SSW 11.4 0.0 0.3
14:22 16.2 10.7 70 1006.1 6.0 SSW 11.4 0.0 0.3
14:24 16.2 10.7 70 1006.0 6.0 SSW 11.4 0.0 0.3
14:25 15.9 10.2 69 1005.9 8.3 W 11.4 0.0 0.3
14:26 15.9 10.2 69 1006.2 8.3 W 11.4 0.0 0.3
14:27 15.8 10.1 69 1006.0 6.0 SW 11.4 0.0 0.3
14:28 15.7 10.0 69 1006.3 5.4 WSW 10.7 0.0 0.3
14:29 15.7 10.3 70 1006.3 5.4 SW 9.2 0.0 0.3
14:30 15.7 10.3 70 1006.2 8.3 SW 9.2 0.0 0.3
14:31 15.6 10.2 70 1006.1 8.3 S 9.2 0.0 0.3
14:32 15.6 10.2 70 1006.1 6.9 W 8.3 0.0 0.3
14:33 15.6 10.2 70 1006.2 6.9 SW 8.3 0.0 0.3
14:34 15.6 10.2 70 1006.1 6.9 SW 8.3 0.0 0.3
14:35 15.6 10.4 71 1006.4 9.8 SSW 9.8 0.0 0.3
14:36 15.6 10.4 71 1006.3 11.4 SW 11.4 0.0 0.3
14:37 15.6 10.4 71 1006.1 9.8 S 11.4 0.0 0.3
14:38 15.6 10.4 71 1006.2 9.2 SSW 11.4 0.0 0.3
14:39 15.6 10.4 71 1006.3 6.9 SW 11.4 0.0 0.3
14:40 15.6 10.4 71 1006.0 8.3 SW 11.4 0.0 0.3
14:41 15.6 10.4 71 1006.1 8.3 WSW 11.4 0.0 0.3
14:43 15.7 10.5 71 1006.5 10.7 S 11.4 0.0 0.3
14:44 15.7 10.5 71 1006.4 9.2 S 11.4 0.0 0.3
14:45 15.7 10.5 71 1006.2 10.7 S 11.4 0.0 0.3
14:46 15.7 10.5 71 1006.4 9.2 S 11.4 0.0 0.3
14:47 15.7 10.5 71 1006.4 9.2 S 11.4 0.0 0.3
14:48 15.7 10.5 71 1006.2 9.2 SW 11.4 0.0 0.3
14:49 15.6 10.4 71 1006.2 7.6 W 11.4 0.0 0.3
14:50 15.6 10.4 71 1006.2 8.3 SW 11.4 0.0 0.3
14:51 15.6 10.4 71 1006.3 9.2 SW 11.4 0.0 0.3
14:52 15.6 10.4 71 1006.3 9.8 S 11.4 0.0 0.3
14:53 15.5 10.3 71 1006.2 8.3 SW 11.4 0.0 0.3
14:54 15.5 10.3 71 1006.4 9.2 NW 11.4 0.0 0.3
14:55 15.5 10.3 71 1006.4 9.2 SW 11.4 0.0 0.3
14:56 15.5 10.3 71 1006.2 9.2 W 10.7 0.0 0.3
14:57 15.4 10.2 71 1006.2 9.2 SW 11.4 0.0 0.3
14:58 15.4 10.2 71 1006.4 10.7 SW 11.4 0.0 0.3
14:59 15.3 10.1 71 1006.5 10.7 S 11.4 0.0 0.3
15:00 15.3 10.1 71 1006.1 10.7 S 11.4 0.0 0.3
15:02 15.3 10.1 71 1006.6 10.7 S 11.4 0.0 0.3
15:03 15.3 10.1 71 1006.3 10.7 S 11.4 0.0 0.3
15:04 15.3 10.1 71 1006.4 10.7 S 11.4 0.0 0.3
15:05 15.3 10.1 71 1006.6 10.7 S 11.4 0.0 0.3
15:06 15.2 10.2 72 1006.5 8.3 S 11.4 0.0 0.3
15:07 15.2 10.2 72 1006.5 8.3 S 11.4 0.0 0.3
15:08 15.2 10.2 72 1006.3 12.1 S 12.1 0.0 0.3
15:09 15.2 10.2 72 1006.5 12.1 S 12.1 0.0 0.3
15:10 15.2 10.4 73 1006.5 9.2 WSW 12.1 0.0 0.3
15:11 15.2 10.4 73 1006.3 10.7 SSW 12.1 0.0 0.3
15:12 15.5 10.9 74 1006.5 8.3 SW 12.1 0.0 0.3
15:13 15.6 11.2 75 1006.3 8.3 S 12.1 0.0 0.3
15:14 15.8 11.6 76 1006.5 8.3 SW 12.1 0.0 0.3
15:15 16.0 11.8 76 1006.5 10.7 S 12.1 0.0 0.3
15:16 16.1 11.7 75 1006.4 13.6 N 15.2 0.0 0.3
15:17 16.1 11.3 73 1006.3 12.1 SW 15.2 0.0 0.3
15:18 16.1 11.1 72 1006.4 9.8 WSW 15.2 0.0 0.3
15:19 16.1 10.8 71 1006.4 8.3 SW 15.2 0.0 0.3
15:20 16.0 10.5 70 1006.6 10.7 S 15.2 0.0 0.3
15:21 16.0 10.5 70 1006.4 11.4 SSW 15.2 0.0 0.3
15:22 15.9 10.4 70 1006.4 11.4 W 15.2 0.0 0.3
15:23 15.8 10.3 70 1006.4 9.2 SSW 15.2 0.0 0.3
15:24 15.8 10.3 70 1006.5 11.4 SSW 15.2 0.0 0.3
15:26 15.8 10.3 70 1006.6 12.1 SW 13.6 0.0 0.3
15:27 15.7 10.3 70 1006.3 12.1 SW 12.1 0.0 0.3
15:28 15.7 10.3 70 1006.4 12.1 SW 12.1 0.0 0.3
15:29 15.6 10.2 70 1006.4 8.3 SW 12.1 0.0 0.3
15:30 15.6 10.2 70 1006.4 8.3 SW 12.1 0.0 0.3
15:31 15.6 10.2 70 1006.5 6.0 S 12.1 0.0 0.3
15:32 15.6 10.4 71 1006.6 10.7 SW 12.1 0.0 0.3
15:33 15.6 10.4 71 1006.6 10.7 SW 12.1 0.0 0.3
15:34 15.6 10.4 71 1006.6 10.7 SW 12.1 0.0 0.3
15:35 15.6 10.4 71 1006.3 10.7 SW 12.1 0.0 0.3
15:36 15.6 9.9 69 1006.5 11.4 S 13.0 0.0 0.3
15:37 15.6 9.9 69 1006.6 9.2 W 13.0 0.0 0.3
15:38 15.6 9.9 69 1006.2 6.0 SW 13.0 0.0 0.3
15:39 15.6 10.2 70 1006.4 8.3 SSW 13.0 0.0 0.3
15:40 15.6 10.4 71 1006.4 10.7 S 13.0 0.0 0.3
15:41 15.7 10.5 71 1006.5 12.1 SW 13.0 0.0 0.3
15:42 15.7 10.5 71 1006.7 12.1 S 13.0 0.0 0.3
15:43 15.7 10.7 72 1006.5 12.1 S 13.0 0.0 0.3
15:45 15.7 10.7 72 1006.7 9.2 SSW 13.0 0.0 0.3
15:46 15.7 10.7 72 1006.5 10.7 SW 12.1 0.0 0.3
15:47 15.7 10.7 72 1006.4 9.8 SW 12.1 0.0 0.3
15:48 15.6 10.6 72 1006.5 9.8 SW 12.1 0.0 0.3
15:49 15.6 10.6 72 1006.6 7.6 SW 12.1 0.0 0.3
15:50 15.7 10.7 72 1006.5 9.8 S 12.1 0.0 0.3
15:51 15.7 10.7 72 1006.5 11.4 SSW 12.1 0.0 0.3
15:52 15.6 10.6 72 1006.6 7.6 SW 12.1 0.0 0.3
15:53 15.6 10.6 72 1006.4 9.8 SW 12.1 0.0 0.3
15:54 15.6 10.6 72 1006.4 6.9 SW 11.4 0.0 0.3
15:55 15.6 10.6 72 1006.6 9.8 W 11.4 0.0 0.3
15:56 15.7 10.9 73 1006.5 10.7 SSW 11.4 0.0 0.3
15:57 15.7 10.9 73 1006.6 10.7 SSW 11.4 0.0 0.3
15:58 15.7 10.9 73 1006.3 10.7 SSW 11.4 0.0 0.3
15:59 16.3 12.1 76 1006.6 9.8 SW 11.4 0.0 0.3
16:00 16.4 12.2 76 1006.8 9.8 W 11.4 0.0 0.3
16:01 16.5 12.1 75 1006.7 11.4 S 11.4 0.0 0.3
16:02 16.5 12.1 75 1006.6 11.4 S 11.4 0.0 0.3
16:04 16.5 11.9 74 1006.5 9.8 SW 12.1 0.0 0.3
16:05 16.4 11.6 73 1006.7 10.7 S 12.1 0.0 0.3
16:06 16.3 11.5 73 1006.6 10.7 S 12.1 0.0 0.3
16:07 16.3 11.5 73 1006.6 10.7 S 12.1 0.0 0.3
16:08 16.3 11.7 74 1006.5 11.4 SW 12.1 0.0 0.3
16:09 16.2 11.6 74 1006.6 10.7 SW 12.1 0.0 0.3
16:10 16.2 11.4 73 1006.7 9.2 S 12.1 0.0 0.3
16:11 16.2 11.4 73 1006.6 11.4 SW 12.1 0.0 0.3
16:12 16.2 11.4 73 1006.4 9.8 SW 12.1 0.0 0.3
16:13 16.2 11.4 73 1006.4 9.8 SW 12.1 0.0 0.3
16:14 16.3 11.5 73 1006.5 11.4 S 11.4 0.0 0.3
16:15 16.3 11.7 74 1006.7 11.4 SW 11.4 0.0 0.3
16:16 16.6 12.0 74 1006.5 11.4 SW 11.4 0.0 0.3
16:17 16.7 12.1 74 1006.4 10.7 SW 11.4 0.0 0.3
16:18 16.6 11.7 73 1006.6 9.8 SW 11.4 0.0 0.3
16:19 16.6 11.7 73 1006.7 9.2 SW 11.4 0.0 0.3
16:20 16.5 11.4 72 1006.5 9.8 S 11.4 0.0 0.3
16:22 16.2 10.9 71 1006.5 8.3 SSE 11.4 0.0 0.3
16:23 16.1 10.8 71 1006.7 8.3 S 11.4 0.0 0.3
16:24 16.0 10.8 71 1006.5 13.0 N 13.0 0.0 0.3
16:25 15.9 10.9 72 1006.7 14.5 NW 14.5 0.0 0.3
16:26 15.9 10.9 72 1006.6 9.8 S 14.5 0.0 0.3
16:27 15.9 10.9 72 1006.6 9.8 S 14.5 0.0 0.3
16:28 15.9 11.1 73 1006.6 9.8 S 14.5 0.0 0.3
16:29 15.9 11.1 73 1006.6 7.6 SW 14.5 0.0 0.3
16:30 15.9 11.1 73 1006.6 13.0 SW 14.5 0.0 0.3
16:31 15.9 11.1 73 1006.5 13.0 SW 14.5 0.0 0.3
16:32 15.9 11.1 73 1006.5 10.7 SW 14.5 0.0 0.3
16:33 15.8 11.0 73 1006.6 9.2 S 14.5 0.0 0.3
16:34 15.8 11.0 73 1006.6 9.2 SW 14.5 0.0 0.3
16:35 15.8 11.0 73 1006.4 12.1 SW 14.5 0.0 0.3
16:36 15.8 11.0 73 1006.6 7.6 SW 13.0 0.0 0.3
16:37 15.8 11.2 74 1006.4 13.6 WSW 13.6 0.0 0.3
16:38 15.9 11.3 74 1006.6 17.4 SW 17.4 0.0 0.3
16:39 15.9 11.3 74 1006.7 14.5 S 17.4 0.0 0.3
16:41 16.0 11.6 75 1006.7 11.4 S 17.4 0.0 0.3
16:42 16.1 11.7 75 1006.6 14.5 WSW 17.4 0.0 0.3
16:43 16.2 11.8 75 1006.6 11.4 SW 17.4 0.0 0.3
16:44 16.3 12.1 76 1006.6 12.1 SW 17.4 0.0 0.3
16:45 16.4 12.2 76 1006.6 12.1 SW 17.4 0.0 0.3
16:46 16.5 12.3 76 1006.4 10.7 SW 17.4 0.0 0.3
16:47 16.7 12.7 77 1006.8 12.1 SW 17.4 0.0 0.3
16:48 16.9 12.7 76 1006.5 9.8 SSW 17.4 0.0 0.3
16:49 16.9 12.7 76 1006.6 9.8 SW 14.5 0.0 0.3
16:50 16.9 12.4 75 1006.4 10.7 S 14.5 0.0 0.3
16:51 16.8 12.1 74 1006.7 12.1 S 14.5 0.0 0.3
16:52 16.6 11.7 73 1006.6 12.1 S 14.5 0.0 0.3
16:53 16.5 11.7 73 1006.6 13.0 S 13.0 0.0 0.3
16:54 16.4 11.8 74 1006.6 13.0 S 13.0 0.0 0.3
16:55 16.2 11.6 74 1006.8 9.8 SSW 13.0 0.0 0.3
16:56 16.1 11.7 75 1006.4 11.4 SW 13.0 0.0 0.3
16:57 16.2 12.0 76 1006.7 11.4 W 13.0 0.0 0.3
16:58 16.3 12.1 76 1006.7 11.4 W 13.0 0.0 0.3
17:00 16.3 12.1 76 1006.6 14.5 SW 14.5 0.0 0.3
17:01 16.3 12.1 76 1006.7 14.5 SW 14.5 0.0 0.3
17:02 16.3 12.1 76 1006.6 14.5 SW 14.5 0.0 0.3
17:03 16.3 12.1 76 1006.6 14.5 SW 14.5 0.0 0.3
17:04 16.3 12.1 76 1006.8 14.5 SW 14.5 0.0 0.3
17:05 16.3 12.1 76 1006.5 14.5 SW 14.5 0.0 0.3
17:06 16.3 12.1 76 1006.7 14.5 SW 14.5 0.0 0.3
17:07 16.7 12.5 76 1006.7 13.6 SW 14.5 0.0 0.3
17:08 16.8 12.1 74 1006.8 9.8 WSW 14.5 0.0 0.3
17:09 16.8 12.1 74 1006.7 13.0 SW 14.5 0.0 0.3
17:10 16.7 11.8 73 1006.5 9.2 S 14.5 0.0 0.3
17:11 16.6 11.7 73 1006.7 11.4 S 14.5 0.0 0.3
17:12 16.6 12.0 74 1006.5 13.0 S 14.5 0.0 0.3
17:13 16.6 12.0 74 1006.4 12.1 SW 14.5 0.0 0.3
17:14 16.7 12.3 75 1006.6 10.7 S 14.5 0.0 0.3
17:15 16.8 12.6 76 1006.6 9.8 S 14.5 0.0 0.3
17:16 17.0 12.7 76 1006.7 9.2 SW 14.5 0.0 0.3
17:17 17.1 12.8 76 1006.7 10.7 SW 13.0 0.0 0.3
17:18 17.2 12.9 76 1006.4 10.7 SSE 13.0 0.0 0.3
17:19 17.2 12.7 75 1006.6 9.8 S 13.0 0.0 0.3
17:20 17.1 12.4 74 1006.9 9.8 SSW 13.0 0.0 0.3
17:21 17.1 12.4 74 1006.5 9.8 SSW 13.0 0.0 0.3
17:22 17.1 12.6 75 1006.8 11.4 W 13.0 0.0 0.3
17:23 17.3 13.0 76 1006.5 15.2 NW 15.2 0.0 0.3
17:24 17.3 12.8 75 1006.7 15.2 SW 15.2 0.0 0.3
17:25 17.2 12.5 74 1006.8 13.0 SSW 15.2 0.0 0.3
17:26 17.2 12.5 74 1006.6 12.1 SE 15.2 0.0 0.3
17:28 17.2 12.3 73 1006.7 13.0 SW 15.2 0.0 0.3
17:29 17.1 12.2 73 1006.7 14.5 SSW 15.2 0.0 0.3
17:30 17.1 12.2 73 1006.7 14.5 SSW 15.2 0.0 0.3
17:31 17.1 12.2 73 1006.7 14.5 S 15.2 0.0 0.3
17:32 17.0 11.9 72 1006.8 14.5 S 15.2 0.0 0.3
17:33 17.0 11.9 72 1006.6 13.6 SSW 15.2 0.0 0.3
17:34 16.9 11.8 72 1006.7 13.6 S 15.2 0.0 0.3
17:35 16.9 12.0 73 1006.7 13.6 S 14.5 0.0 0.3
17:36 16.9 12.0 73 1006.7 12.1 S 14.5 0.0 0.3
17:37 16.9 12.0 73 1006.8 13.0 S 14.5 0.0 0.3
17:38 16.9 12.0 73 1006.8 13.0 S 14.5 0.0 0.3
17:39 16.9 12.2 74 1006.7 10.7 S 14.5 0.0 0.3
17:40 16.9 12.2 74 1006.7 7.6 W 14.5 0.0 0.3
17:41 16.9 12.2 74 1006.7 8.3 SW 14.5 0.0 0.3
17:42 16.8 11.9 73 1006.9 12.1 SSW 14.5 0.0 0.3
17:43 16.8 11.9 73 1006.8 11.4 SSW 13.6 0.0 0.3
17:44 16.6 11.7 73 1006.7 9.8 S 13.6 0.0 0.3
17:45 16.5 11.4 72 1007.0 13.6 SW 13.6 0.0 0.3
17:47 16.4 11.6 73 1006.8 9.2 W 13.6 0.0 0.3
17:48 16.3 11.5 73 1007.0 9.2 SW 13.6 0.0 0.3
17:49 16.3 11.5 73 1006.8 9.8 SW 13.6 0.0 0.3
17:50 16.3 11.7 74 1006.8 9.8 S 13.6 0.0 0.3
17:51 16.3 11.7 74 1006.8 9.8 S 13.6 0.0 0.3
17:52 16.5 11.9 74 1007.0 13.0 SW 13.6 0.0 0.3
17:53 16.5 11.9 74 1006.9 13.0 SW 13.6 0.0 0.3
17:54 16.6 12.0 74 1006.8 9.8 S 13.6 0.0 0.3
17:55 16.6 12.0 74 1006.8 10.7 SW 13.6 0.0 0.3
17:56 16.7 12.1 74 1007.0 10.7 W 13.6 0.0 0.3
17:57 16.8 12.1 74 1006.8 9.2 W 13.0 0.0 0.3
17:58 16.8 12.1 74 1006.7 9.8 SW 13.0 0.0 0.3
17:59 16.8 12.1 74 1006.7 9.8 SW 13.0 0.0 0.3
18:00 16.8 12.1 74 1007.0 13.0 S 13.0 0.0 0.3
18:01 16.8 12.1 74 1006.9 13.0 S 13.0 0.0 0.3
18:02 16.8 12.1 74 1006.7 13.0 S 13.0 0.0 0.3
18:03 16.8 12.1 74 1006.7 13.0 S 13.0 0.0 0.3
18:04 16.8 12.1 74 1006.7 13.0 S 13.0 0.0 0.3
18:06 16.7 11.8 73 1006.8 9.8 S 13.0 0.0 0.3
18:07 16.7 11.8 73 1006.9 9.8 SSW 13.0 0.0 0.3
18:08 16.6 11.7 73 1007.0 9.2 SSW 13.0 0.0 0.3
18:09 16.5 11.4 72 1006.8 8.3 SW 13.0 0.0 0.3
18:10 16.5 11.4 72 1006.8 8.3 SW 13.0 0.0 0.3
18:11 16.4 11.3 72 1006.9 7.6 SW 13.0 0.0 0.3
18:12 16.5 11.7 73 1006.9 9.8 SW 13.0 0.0 0.3
18:13 16.5 11.7 73 1006.8 6.9 SW 13.0 0.0 0.3
18:14 16.5 11.7 73 1006.8 12.1 WSW 13.0 0.0 0.3
18:15 16.5 11.7 73 1006.8 10.7 S 13.0 0.0 0.3
18:16 16.4 11.3 72 1006.8 8.3 SW 12.1 0.0 0.3
18:17 16.3 11.3 72 1006.8 10.7 SW 12.1 0.0 0.3
18:18 16.3 11.3 72 1007.1 6.9 SW 12.1 0.0 0.3
18:19 16.3 11.5 73 1006.8 6.9 SW 12.1 0.0 0.3
18:20 16.3 11.5 73 1007.0 9.8 S 12.1 0.0 0.3
18:21 16.4 11.6 73 1006.8 8.3 SW 12.1 0.0 0.3
18:22 16.4 11.6 73 1006.8 4.5 W 12.1 0.0 0.3
18:23 16.5 11.7 73 1006.9 8.3 SSW 12.1 0.0 0.3
18:25 16.8 11.9 73 1006.9 9.2 W 10.7 0.0 0.3
18:26 16.9 11.6 71 1006.8 9.8 NW 10.7 0.0 0.3
18:27 16.9 11.4 70 1006.7 7.6 W 9.8 0.0 0.3
18:28 17.0 11.5 70 1006.8 6.9 SSW 9.8 0.0 0.3
18:29 17.0 11.5 70 1006.9 8.3 SW 9.8 0.0 0.3
18:30 17.1 11.6 70 1006.7 8.3 SW 9.8 0.0 0.3
18:31 17.1 11.6 70 1006.9 6.9 W 9.8 0.0 0.3
18:32 17.2 11.7 70 1006.8 10.7 S 10.7 0.0 0.3
18:33 17.2 11.7 70 1006.9 10.7 S 10.7 0.0 0.3
18:34 17.2 11.7 70 1007.0 9.8 SW 10.7 0.0 0.3
18:35 17.1 11.4 69 1006.9 8.3 SW 10.7 0.0 0.3
18:36 16.9 11.2 69 1006.8 8.3 SW 10.7 0.0 0.3
18:37 16.9 11.2 69 1006.8 8.3 SW 10.7 0.0 0.3
18:38 16.6 10.9 69 1006.8 9.2 S 10.7 0.0 0.3
18:39 16.4 10.7 69 1006.8 6.9 SW 10.7 0.0 0.3
18:40 16.4 10.7 69 1006.7 6.9 SW 10.7 0.0 0.3
18:41 16.1 10.6 70 1006.8 6.9 SSW 10.7 0.0 0.3
18:43 16.1 10.8 71 1007.0 7.6 N 9.8 0.0 0.3
18:44 16.0 10.8 71 1006.8 10.7 WSW 10.7 0.0 0.3
18:45 16.0 11.0 72 1006.8 9.2 S 10.7 0.0 0.3
18:46 15.9 10.9 72 1007.0 8.3 S 10.7 0.0 0.3
18:47 15.9 10.9 72 1007.0 8.3 S 10.7 0.0 0.3
18:48 15.8 10.8 72 1006.9 8.3 W 10.7 0.0 0.3
18:49 15.9 10.9 72 1007.0 9.8 W 10.7 0.0 0.3
18:50 15.9 11.1 73 1006.9 6.9 SW 10.7 0.0 0.3
18:51 16.0 11.2 73 1007.0 8.3 SW 10.7 0.0 0.3
18:52 16.1 11.3 73 1007.0 4.5 WSW 10.7 0.0 0.3
18:53 16.3 11.7 74 1006.9 8.3 S 10.7 0.0 0.3
18:54 16.4 11.8 74 1006.9 9.2 SW 10.7 0.0 0.3
18:55 16.6 12.0 74 1007.0 9.2 SW 9.8 0.0 0.3
18:56 16.8 12.1 74 1007.2 6.9 S 9.8 0.0 0.3
18:57 16.8 11.9 73 1007.1 6.9 W 9.8 0.0 0.3
18:58 16.7 11.6 72 1006.8 7.6 SSE 9.8 0.0 0.3
18:59 16.6 11.5 72 1007.1 6.9 SSW 9.2 0.0 0.3
19:01 16.6 11.5 72 1007.2 6.9 SSW 9.2 0.0 0.3
19:02 16.6 11.5 72 1007.2 6.9 SSW 9.2 0.0 0.3
19:03 16.6 11.5 72 1007.0 6.9 SSW 9.2 0.0 0.3
19:04 16.6 11.5 72 1007.0 6.9 SSW 9.2 0.0 0.3
19:05 16.6 11.5 72 1007.2 6.9 SSW 7.6 0.0 0.3
19:06 16.6 11.5 72 1007.2 6.9 SSW 7.6 0.0 0.3
19:07 15.6 10.6 72 1007.3 7.6 WSW 7.6 0.0 0.3
19:08 15.5 10.5 72 1007.2 6.9 SW 8.3 0.0 0.3
19:09 15.5 10.7 73 1007.0 4.5 SW 8.3 0.0 0.3
19:10 15.5 10.7 73 1007.2 4.5 WSW 8.3 0.0 0.3
19:11 15.6 10.8 73 1007.2 6.0 W 8.3 0.0 0.3
19:12 15.7 10.9 73 1007.2 7.6 SSW 8.3 0.0 0.3
19:13 15.7 10.7 72 1007.2 9.2 WSW 9.2 0.0 0.3
19:14 15.8 10.8 72 1007.3 9.2 WNW 9.2 0.0 0.3
19:15 15.8 10.8 72 1007.4 6.9 NW 9.2 0.0 0.3
19:16 15.9 10.7 71 1007.3 5.4 W 9.2 0.0 0.3
19:17 15.9 10.9 72 1007.3 6.9 W 9.2 0.0 0.3
19:18 15.9 10.9 72 1007.3 8.3 NW 9.2 0.0 0.3
19:19 15.9 10.7 71 1007.2 6.0 W 9.2 0.0 0.3
19:20 15.8 10.6 71 1007.2 6.9 SW 9.2 0.0 0.3
19:21 15.8 10.6 71 1007.3 6.9 SW 9.2 0.0 0.3
19:22 15.8 10.6 71 1007.1 6.9 W 9.2 0.0 0.3
19:23 15.7 10.5 71 1007.3 6.9 WNW 9.2 0.0 0.3
19:24 15.6 10.4 71 1007.3 6.0 W 8.3 0.0 0.3
19:25 15.5 10.3 71 1007.3 6.0 W 8.3 0.0 0.3
19:26 15.5 10.3 71 1007.3 7.6 W 8.3 0.0 0.3
19:28 15.4 10.2 71 1007.2 5.4 SW 8.3 0.0 0.3
19:29 15.3 10.1 71 1007.3 4.5 SW 8.3 0.0 0.3
19:30 15.3 10.3 72 1007.4 6.0 SW 8.3 0.0 0.3
19:31 15.3 10.3 72 1007.3 6.0 SW 8.3 0.0 0.3
19:32 15.2 10.2 72 1007.3 7.6 SW 8.3 0.0 0.3
19:33 15.2 10.2 72 1007.3 7.6 SW 7.6 0.0 0.3
19:34 15.1 10.1 72 1007.3 6.0 SW 7.6 0.0 0.3
19:35 15.1 10.1 72 1007.3 7.6 NW 7.6 0.0 0.3
19:36 15.0 10.0 72 1007.4 5.4 W 7.6 0.0 0.3
19:37 15.0 10.0 72 1007.2 8.3 W 8.3 0.0 0.3
19:38 15.0 10.0 72 1007.1 8.3 SW 8.3 0.0 0.3
19:39 15.0 10.0 72 1007.5 4.5 SW 8.3 0.0 0.3
19:40 15.0 10.2 73 1007.4 6.0 SW 8.3 0.0 0.3
19:41 14.9 10.1 73 1007.3 5.4 SW 8.3 0.0 0.3
19:42 14.9 10.1 73 1007.4 5.4 SW 8.3 0.0 0.3
19:43 14.9 10.1 73 1007.6 6.0 SW 8.3 0.0 0.3
19:44 14.8 10.2 74 1007.3 6.0 SW 8.3 0.0 0.3
19:45 14.8 10.2 74 1007.4 5.4 SW 8.3 0.0 0.3
19:47 14.8 10.2 74 1007.3 6.0 W 8.3 0.0 0.3
19:48 14.8 10.2 74 1007.4 6.9 NW 6.9 0.0 0.3
19:49 14.8 10.4 75 1007.4 5.4 W 6.9 0.0 0.3
19:50 14.8 10.4 75 1007.4 7.6 W 7.6 0.0 0.3
19:51 14.8 10.4 75 1007.4 7.6 W 7.6 0.0 0.3
19:52 14.8 10.4 75 1007.8 6.0 SW 7.6 0.0 0.3
19:53 14.8 10.4 75 1007.6 6.9 W 7.6 0.0 0.3
19:54 14.8 10.4 75 1007.6 7.6 S 7.6 0.0 0.3
19:55 14.8 10.4 75 1007.7 8.3 SW 8.3 0.0 0.3
19:56 14.8 10.6 76 1007.5 6.0 SW 8.3 0.0 0.3
19:57 14.8 10.6 76 1007.5 6.0 SSW 8.3 0.0 0.3
19:58 14.9 10.7 76 1007.6 6.0 WSW 8.3 0.0 0.3
19:59 14.9 10.7 76 1007.4 4.5 SW 8.3 0.0 0.3
20:00 14.8 10.6 76 1007.7 6.9 SW 8.3 0.0 0.3
20:01 14.8 10.6 76 1007.5 6.9 SW 8.3 0.0 0.3
20:02 14.8 10.6 76 1007.6 6.9 SW 8.3 0.0 0.3
20:03 14.8 10.6 76 1007.5 6.9 SW 8.3 0.0 0.3
20:04 14.8 10.6 76 1007.6 6.9 SW 8.3 0.0 0.3
20:06 14.6 10.2 75 1007.6 7.6 SW 7.6 0.0 0.3
20:07 14.6 10.2 75 1007.7 7.6 SW 7.6 0.0 0.3
20:08 14.5 10.1 75 1007.5 6.9 SW 7.6 0.0 0.3
20:09 14.5 10.1 75 1007.8 7.6 SW 7.6 0.0 0.3
20:10 14.5 10.1 75 1007.8 7.6 SW 7.6 0.0 0.3
20:11 14.5 10.3 76 1007.6 6.0 SW 7.6 0.0 0.3
20:12 14.4 10.2 76 1007.6 6.0 WSW 7.6 0.0 0.3
20:13 14.4 10.2 76 1007.8 4.5 W 7.6 0.0 0.3
20:14 14.4 10.2 76 1007.7 4.5 W 7.6 0.0 0.3
20:15 14.4 10.2 76 1007.6 6.9 W 7.6 0.0 0.3
20:16 14.3 10.1 76 1007.8 5.4 SW 7.6 0.0 0.3
20:17 14.3 10.1 76 1007.9 5.4 SW 7.6 0.0 0.3
20:18 14.3 10.3 77 1007.8 6.9 W 7.6 0.0 0.3
20:19 14.3 10.3 77 1007.8 6.0 SW 7.6 0.0 0.3
20:20 14.3 10.3 77 1007.7 3.1 WNW 6.9 0.0 0.3
20:21 14.3 10.3 77 1007.7 6.0 W 6.9 0.0 0.3
20:22 14.2 10.2 77 1007.7 4.5 W 6.9 0.0 0.3
20:24 14.2 10.4 78 1007.7 6.0 W 6.9 0.0 0.3
20:25 14.2 10.4 78 1007.6 4.5 SW 6.9 0.0 0.3
20:26 14.2 10.4 78 1007.8 6.0 SW 6.9 0.0 0.3
20:27 14.2 10.4 78 1007.8 6.0 W 6.9 0.0 0.3
20:28 14.2 10.4 78 1007.6 5.4 W 6.0 0.0 0.3
20:29 14.1 10.3 78 1008.0 4.5 SW 6.0 0.0 0.3
20:30 14.1 10.3 78 1007.9 5.4 SW 6.0 0.0 0.3
20:31 14.1 10.3 78 1008.0 7.6 SW 7.6 0.0 0.3
20:32 14.1 10.5 79 1007.9 4.5 W 7.6 0.0 0.3
20:33 14.1 10.5 79 1007.8 5.4 SW 7.6 0.0 0.3
20:34 14.1 10.5 79 1007.8 6.0 N 7.6 0.0 0.3
20:35 14.1 10.5 79 1007.9 6.0 W 7.6 0.0 0.3
20:36 14.0 10.4 79 1007.9 3.1 W 7.6 0.0 0.3
20:37 14.0 10.4 79 1007.6 6.0 SW 7.6 0.0 0.3
20:38 14.0 10.4 79 1007.9 5.4 WNW 7.6 0.0 0.3
20:39 14.0 10.4 79 1007.8 4.5 SW 7.6 0.0 0.3
20:40 14.0 10.4 79 1007.7 6.0 SW 7.6 0.0 0.3
20:41 14.0 10.4 79 1008.0 6.0 SW 6.0 0.0 0.3
20:43 14.0 10.4 79 1007.7 4.5 SW 6.0 0.0 0.3
20:44 14.0 10.4 79 1008.0 5.4 SW 6.0 0.0 0.3
20:45 14.0 10.4 79 1007.7 4.5 W 6.0 0.0 0.3
20:46 14.0 10.4 79 1008.0 5.4 WSW 6.0 0.0 0.3
20:47 14.0 10.4 79 1008.0 5.4 WSW 6.0 0.0 0.3
20:48 14.0 10.4 79 1007.9 6.9 SW 6.9 0.0 0.3
20:49 13.9 10.3 79 1007.9 6.0 SW 6.9 0.0 0.3
20:50 13.9 10.3 79 1007.9 7.6 SSW 7.6 0.0 0.3
20:51 13.9 10.3 79 1007.9 6.0 S 7.6 0.0 0.3
20:52 13.9 10.5 80 1007.9 9.2 SW 9.2 0.0 0.3
20:53 13.9 10.5 80 1008.0 5.4 WSW 9.2 0.0 0.3
20:54 13.9 10.5 80 1008.1 5.4 W 9.2 0.0 0.3
20:55 13.9 10.5 80 1007.9 6.0 SW 9.2 0.0 0.3
20:56 13.8 10.4 80 1008.0 6.9 SW 9.2 0.0 0.3
20:57 13.8 10.4 80 1007.7 7.6 S 9.2 0.0 0.3
20:58 13.8 10.4 80 1008.0 6.9 SW 9.2 0.0 0.3
20:59 13.8 10.4 80 1007.9 5.4 SW 9.2 0.0 0.3
21:00 13.8 10.4 80 1008.0 5.4 SW 9.2 0.0 0.3
21:02 13.8 10.4 80 1007.9 5.4 SW 7.6 0.0 0.3
21:03 13.8 10.4 80 1007.9 5.4 SW 7.6 0.0 0.3
21:04 13.8 10.4 80 1007.9 5.4 SW 7.6 0.0 0.3
21:05 13.8 10.4 80 1008.1 5.4 SW 7.6 0.0 0.3
21:06 13.8 10.4 80 1008.1 5.4 SW 7.6 0.0 0.3
21:07 13.8 10.4 80 1008.0 5.4 SW 7.6 0.0 0.3
21:08 13.6 10.4 81 1008.0 4.5 W 7.6 0.0 0.3
21:09 13.6 10.4 81 1008.1 6.9 SW 6.9 0.0 0.3
21:10 13.6 10.4 81 1008.1 5.4 W 6.9 0.0 0.3
21:11 13.5 10.3 81 1007.9 5.4 SW 6.9 0.0 0.3
21:12 13.5 10.3 81 1007.8 6.9 S 6.9 0.0 0.3
21:13 13.5 10.3 81 1008.0 4.5 SW 6.9 0.0 0.3
21:14 13.4 10.2 81 1008.0 4.5 SSW 6.9 0.0 0.3
21:15 13.4 10.2 81 1008.0 3.8 WSW 6.9 0.0 0.3
21:16 13.4 10.2 81 1008.0 4.5 SW 6.9 0.0 0.3
21:17 13.4 10.2 81 1008.0 4.5 SW 6.9 0.0 0.3
21:18 13.3 10.1 81 1008.0 5.4 WSW 6.9 0.0 0.3
21:19 13.3 10.1 81 1008.0 4.5 SW 6.9 0.0 0.3
21:20 13.2 10.2 82 1008.1 4.5 S 6.9 0.0 0.3
21:21 13.2 10.2 82 1008.0 5.4 S 6.9 0.0 0.3
21:22 13.2 10.2 82 1008.1 4.5 S 6.9 0.0 0.3
21:23 13.2 10.2 82 1008.1 5.4 SW 5.4 0.0 0.3
21:24 13.1 10.1 82 1008.0 4.5 S 5.4 0.0 0.3
21:25 13.1 10.1 82 1007.9 5.4 SW 5.4 0.0 0.3
21:26 13.1 10.1 82 1008.0 4.5 SW 5.4 0.0 0.3
21:27 13.0 10.0 82 1008.0 4.5 SW 5.4 0.0 0.3
21:28 13.0 10.0 82 1008.0 4.5 SW 5.4 0.0 0.3
21:29 12.9 9.9 82 1008.1 3.1 SSW 5.4 0.0 0.3
21:30 12.9 9.9 82 1008.0 3.1 W 5.4 0.0 0.3
21:32 12.9 9.9 82 1008.1 3.8 S 5.4 0.0 0.3
21:33 12.8 9.8 82 1008.3 3.1 SW 5.4 0.0 0.3
21:34 12.8 9.8 82 1008.1 3.8 SW 5.4 0.0 0.3
21:35 12.8 9.8 82 1008.2 3.8 SW 4.5 0.0 0.3
21:36 12.8 10.0 83 1008.1 3.1 S 4.5 0.0 0.3
21:37 12.7 9.9 83 1008.1 3.8 SW 4.5 0.0 0.3
21:38 12.7 9.9 83 1008.5 3.8 S 3.8 0.0 0.3
21:39 12.7 9.9 83 1008.5 3.8 S 3.8 0.0 0.3
21:40 12.6 9.8 83 1008.3 2.2 SW 3.8 0.0 0.3
21:41 12.6 9.8 83 1008.2 2.2 SW 3.8 0.0 0.3
21:42 12.6 9.8 83 1008.0 2.2 SW 3.8 0.0 0.3
21:43 12.6 9.8 83 1008.4 2.2 SW 3.8 0.0 0.3
21:44 12.6 9.8 83 1008.5 2.2 SW 3.8 0.0 0.3
21:45 12.6 9.8 83 1008.4 2.2 SW 3.8 0.0 0.3
21:46 12.5 9.7 83 1008.3 2.2 SW 3.8 0.0 0.3
21:47 12.5 9.9 84 1008.2 2.2 SW 3.8 0.0 0.3
21:48 12.5 9.9 84 1008.4 2.2 SW 3.8 0.0 0.3
21:49 12.5 9.9 84 1008.3 1.6 SW 3.1 0.0 0.3
21:50 12.4 10.3 87 1008.3 1.6 SW 2.2 0.0 0.3
21:51 12.4 10.3 87 1008.4 1.6 SW 2.2 0.0 0.3
21:52 12.4 10.3 87 1008.3 1.6 SW 2.2 0.0 0.3
21:54 12.3 10.4 88 1008.4 1.6 SW 2.2 0.0 0.3
21:55 12.4 10.5 88 1008.3 0.0 SW 2.2 0.0 0.3
21:56 12.3 10.4 88 1008.5 1.6 SW 2.2 0.0 0.3
21:57 12.3 10.4 88 1008.5 2.2 SW 2.2 0.0 0.3
21:58 12.3 10.4 88 1008.5 2.2 SW 2.2 0.0 0.3
21:59 12.3 10.4 88 1008.6 2.2 SW 2.2 0.0 0.3
22:00 12.3 10.5 89 1008.5 3.1 SW 3.1 0.0 0.3
22:01 12.3 10.5 89 1008.6 2.2 SW 3.1 0.0 0.3
22:02 12.2 10.4 89 1008.8 2.2 SW 3.1 0.0 0.3
22:03 12.2 10.4 89 1008.5 2.2 W 3.1 0.0 0.3
22:04 12.2 10.4 89 1008.4 2.2 SW 3.1 0.0 0.3
22:05 12.2 10.4 89 1008.6 2.2 SW 3.1 0.0 0.3
22:06 12.2 10.4 89 1008.6 2.2 SW 3.1 0.0 0.3
22:07 12.2 10.4 89 1008.5 2.2 SW 3.1 0.0 0.3
22:08 12.1 10.3 89 1008.7 2.2 S 3.1 0.0 0.3
22:09 12.1 10.3 89 1008.7 3.1 SW 3.1 0.0 0.3
22:10 12.1 10.3 89 1008.6 1.6 SW 3.1 0.0 0.3
22:11 12.1 10.3 89 1008.6 0.0 SSW 3.1 0.0 0.3
22:13 12.0 10.2 89 1008.5 0.0 SW 3.1 0.0 0.3
22:14 12.0 10.2 89 1008.7 0.0 SW 3.1 0.0 0.3
22:15 12.0 10.4 90 1008.7 0.0 W 3.1 0.0 0.3
22:16 12.0 10.4 90 1008.7 0.0 SW 3.1 0.0 0.3
22:17 12.0 10.4 90 1008.9 0.0 SW 3.1 0.0 0.3
22:18 12.0 10.4 90 1008.6 0.0 W 3.1 0.0 0.3
22:19 12.0 10.4 90 1008.7 0.0 W 3.1 0.0 0.3
22:20 12.0 10.4 90 1008.7 0.0 SW 3.1 0.0 0.3
22:21 12.0 10.4 90 1008.5 0.0 SW 0.0 0.0 0.3
22:22 12.0 10.4 90 1008.6 0.0 W 0.0 0.0 0.3
22:23 12.0 10.4 90 1008.6 0.0 SW 0.0 0.0 0.3
22:24 12.0 10.4 90 1008.7 0.0 SW 0.0 0.0 0.3
22:25 12.0 10.4 90 1008.7 0.0 S 0.0 0.0 0.3
22:26 12.0 10.4 90 1008.7 1.6 SW 1.6 0.0 0.3
22:27 12.0 10.4 90 1008.7 1.6 SW 1.6 0.0 0.3
22:28 12.0 10.4 90 1008.8 1.6 SW 1.6 0.0 0.3
22:29 11.9 10.5 91 1008.6 0.0 S 1.6 0.0 0.3
22:30 11.9 10.5 91 1008.7 0.0 SW 1.6 0.0 0.3
22:32 11.9 10.5 91 1008.8 0.0 SW 1.6 0.0 0.3
22:33 11.9 10.5 91 1008.7 0.0 SW 1.6 0.0 0.3
22:34 11.9 10.5 91 1008.7 0.0 SW 1.6 0.0 0.3
22:35 11.8 10.4 91 1008.8 0.0 SW 1.6 0.0 0.3
22:36 11.8 10.4 91 1008.9 0.0 SW 1.6 0.0 0.3
22:37 11.8 10.4 91 1008.7 0.0 SW 1.6 0.0 0.3
22:38 11.8 10.4 91 1008.9 0.0 SW 1.6 0.0 0.3
22:39 11.8 10.4 91 1008.9 0.0 SW 0.0 0.0 0.3
22:40 11.8 10.4 91 1008.7 0.0 S 0.0 0.0 0.3
22:41 11.8 10.5 92 1009.0 0.0 SW 0.0 0.0 0.3
22:42 11.8 10.5 92 1008.9 0.0 SW 0.0 0.0 0.3
22:43 11.8 10.5 92 1008.7 0.0 SW 0.0 0.0 0.3
22:44 11.8 10.5 92 1008.9 0.0 SW 0.0 0.0 0.3
22:45 11.7 10.4 92 1008.9 0.0 SW 0.0 0.0 0.3
22:46 11.7 10.4 92 1009.0 0.0 SW 0.0 0.0 0.3
22:47 11.7 10.4 92 1008.8 0.0 W 0.0 0.0 0.3
22:48 11.7 10.4 92 1009.0 0.0 W 0.0 0.0 0.3
22:49 11.7 10.4 92 1008.8 0.0 W 0.0 0.0 0.3
22:51 11.7 10.4 92 1008.8 0.0 SW 0.0 0.0 0.3
22:52 11.7 10.4 92 1008.7 0.0 SW 0.0 0.0 0.3
22:53 11.7 10.6 93 1008.8 0.0 SW 0.0 0.0 0.3
22:54 11.7 10.6 93 1008.9 0.0 SW 0.0 0.0 0.3
22:55 11.7 10.6 93 1008.9 0.0 SW 0.0 0.0 0.3
22:56 11.7 10.6 93 1008.7 0.0 SW 0.0 0.0 0.3
22:57 11.7 10.6 93 1009.0 0.0 SW 0.0 0.0 0.3
22:58 11.7 10.6 93 1008.8 0.0 SW 0.0 0.0 0.3
22:59 11.7 10.6 93 1008.8 0.0 SW 0.0 0.0 0.3
23:00 11.7 10.6 93 1008.9 0.0 W 0.0 0.0 0.3
23:01 11.7 10.6 93 1009.0 0.0 W 0.0 0.0 0.3
23:02 11.7 10.6 93 1008.7 0.0 W 0.0 0.0 0.3
23:03 11.7 10.6 93 1008.8 0.0 W 0.0 0.0 0.3
23:04 11.7 10.6 93 1008.9 0.0 W 0.0 0.0 0.3
23:05 11.7 10.6 93 1008.9 0.0 W 0.0 0.0 0.3
23:06 11.6 10.7 94 1008.6 0.0 SW 0.0 0.0 0.3
23:07 11.6 10.7 94 1008.9 1.6 SW 1.6 0.0 0.3
23:09 11.6 10.7 94 1008.9 0.0 SW 1.6 0.0 0.3
23:10 11.6 10.7 94 1008.6 0.0 SW 1.6 0.0 0.3
23:11 11.6 10.7 94 1008.6 0.0 W 1.6 0.0 0.3
23:12 11.5 10.6 94 1008.9 0.0 SW 1.6 0.0 0.3
23:13 11.5 10.6 94 1008.8 0.0 SW 1.6 0.0 0.3
23:14 11.5 10.6 94 1008.8 0.0 SW 1.6 0.0 0.3
23:15 11.5 10.6 94 1008.7 0.0 W 1.6 0.0 0.3
23:16 11.5 10.6 94 1008.8 0.0 W 1.6 0.0 0.3
23:17 11.5 10.6 94 1008.8 0.0 W 1.6 0.0 0.3
23:18 11.5 10.6 94 1008.7 0.0 W 0.0 0.0 0.3
23:19 11.5 10.6 94 1008.9 0.0 W 0.0 0.0 0.3
23:21 11.5 10.6 94 1008.9 0.0 W 0.0 0.0 0.3
23:22 11.5 10.7 95 1009.0 0.0 W 0.0 0.0 0.3
23:23 11.5 10.7 95 1008.7 0.0 SW 0.0 0.0 0.3
23:24 11.4 10.6 95 1008.8 0.0 SW 0.0 0.0 0.3
23:25 11.4 10.6 95 1008.9 0.0 S 0.0 0.0 0.3
23:26 11.4 10.6 95 1008.8 0.0 S 0.0 0.0 0.3
23:27 11.4 10.6 95 1008.9 0.0 S 0.0 0.0 0.3
23:28 11.4 10.6 95 1008.7 0.0 S 0.0 0.0 0.3
23:29 11.4 10.6 95 1008.6 0.0 S 0.0 0.0 0.3
23:30 11.4 10.6 95 1008.8 0.0 S 0.0 0.0 0.3
23:31 11.4 10.6 95 1008.7 0.0 S 0.0 0.0 0.3
23:32 11.3 10.5 95 1008.7 0.0 S 0.0 0.0 0.3
23:33 11.3 10.5 95 1009.0 0.0 S 0.0 0.0 0.3
23:34 11.3 10.5 95 1008.7 0.0 S 0.0 0.0 0.3
23:35 11.3 10.5 95 1008.5 0.0 S 0.0 0.0 0.3
23:36 11.3 10.5 95 1008.8 0.0 S 0.0 0.0 0.3
23:37 11.3 10.5 95 1008.6 0.0 SW 0.0 0.0 0.3
23:39 11.3 10.5 95 1009.0 0.0 SW 0.0 0.0 0.3
23:40 11.3 10.5 95 1008.8 0.0 SW 0.0 0.0 0.3
23:41 11.2 10.6 96 1008.8 0.0 SW 0.0 0.0 0.3
23:42 11.2 10.6 96 1008.9 0.0 SW 0.0 0.0 0.3
23:43 11.2 10.6 96 1008.9 0.0 SW 0.0 0.0 0.3
23:44 11.2 10.6 96 1008.9 0.0 SW 0.0 0.0 0.3
23:45 11.2 10.6 96 1008.9 0.0 SW 0.0 0.0 0.3
23:46 11.2 10.6 96 1008.8 0.0 SW 0.0 0.0 0.3
23:47 11.1 10.5 96 1008.9 0.0 SW 0.0 0.0 0.3
23:48 11.1 10.5 96 1008.8 0.0 SW 0.0 0.0 0.3
23:49 11.1 10.5 96 1008.9 0.0 SW 0.0 0.0 0.3
23:50 11.1 10.5 96 1008.9 0.0 SW 0.0 0.0 0.3
23:51 11.1 10.5 96 1009.0 0.0 SW 0.0 0.0 0.3
23:52 11.0 10.4 96 1008.7 0.0 SW 0.0 0.0 0.3
23:53 11.0 10.4 96 1008.9 0.0 SW 0.0 0.0 0.3
23:54 11.0 10.4 96 1009.0 0.0 SW 0.0 0.0 0.3
23:55 11.0 10.4 96 1008.8 0.0 SW 0.0 0.0 0.3
23:56 11.0 10.4 96 1008.9 0.0 SW 0.0 0.0 0.3
23:57 11.0 10.4 96 1009.0 0.0 SW 0.0 0.0 0.3
23:59 11.0 10.4 96 1008.9 0.0 SW 0.0 0.0 0.3

 

 

UK - WEATHER STATION TOPSITES - UK

Copyright © Carnkie Weather 2009 - 2024.